2019 L3 Turkey Dash

Age Group Results

November 28, 2019


Results by Run Houston Timing Run Houston Timing


Men: Top Finishers 0- 0 1- 7 8-14 15-99
Women: Top Finishers 1- 7 8-14 15-99

Top

Female Open Winners

Place Name City Bib No Age Div Overall Total Time Pace
1 Mary Freund Goodyear AZ 427 73 2 1 3:20.0 3:20/K
2 Linda Tobey East Falmouth MA 1246 72 2 4 3:35.5 1:45/K
3 Abbie Carlson Kingwood TX 220 37 2 5 3:35.5 3:36/K
Top

Female 7 and Under

Place Name City Bib No Age Div Overall Total Time Pace
1 Bailey Page Huffman TX 961 7 2 26 4:50.9 4:51/K
2 Emily Garrison Humble TX 452 7 2 51 5:31.6 5:32/K
3 Kaitlyn Morrow Kingwood TX 920 7 2 57 5:33.3 5:33/K
4 Claire Kinzel Humble TX 663 7 2 61 5:33.7 5:34/K
5 Everleigh Hayes Kingwood TX 1567 6 2 62 5:33.9 5:34/K
6 Emma Lucas Kingwood TX 765 7 2 72 5:53.8 5:54/K
7 Sydney Barker Kingwood TX 70 7 2 80 6:04.4 6:04/K
8 Tenley Barker Kingwood TX 71 7 2 83 6:05.2 6:05/K
9 Jessie Pinter Kingwood TX 1006 7 2 85 6:06.2 6:06/K
10 Aubrey Ebarb Kingwood TX 1628 7 2 87 6:07.9 6:08/K
11 Molly Chaney Humble TX 255 6 2 88 6:13.2 6:13/K
12 Margaret Wakefield Kingwood TX 1287 7 2 91 6:15.9 6:16/K
13 Veyda Sosnik Kingwood TX 1170 6 2 101 6:25.2 6:25/K
14 Ella Laskowski Kingwood TX 715 7 2 102 6:26.8 6:27/K
15 Bailey Mein Kingwood TX 865 6 2 106 6:33.6 6:34/K
16 Rosy Brooks Kingwood TX 162 6 2 107 6:35.0 6:35/K
17 Brynn Chappell Humble TX 258 5 2 108 6:35.4 6:35/K
18 Jameson Biesemeyer Kingwood TX 1388 4 2 112 6:39.0 6:39/K
19 Lauren Tinnin Kingwood TX 1241 7 2 115 6:41.1 6:41/K
20 Molly Ebbs Humble TX 361 7 2 126 6:52.7 6:53/K
21 Ivy Johnson Kingwood TX 622 6 2 133 7:04.3 7:04/K
22 Tori Thomasson Huffman TX 1229 7 2 136 7:06.0 7:06/K
23 Emma Carruth Kingwood TX 1692 4 2 137 7:06.8 7:07/K
24 Bailey Moran Humble TX 908 5 2 140 7:14.6 7:15/K
25 Paisley Moore Ignacio CO 907 5 2 143 7:18.4 7:18/K
26 Keeley Fontenot Kingwood TX 421 5 2 150 7:24.9 7:25/K
27 Kennedy Pelfrey Kingwood TX 1422 4 2 157 7:32.9 7:33/K
28 Corinne Piercefield Kingwood TX 998 5 2 163 7:40.2 7:40/K
29 Olivia Giegerich Kingwood TX 1453 4 2 165 7:42.5 7:43/K
30 Ava Cooke Porter TX 1382 6 2 173 8:05.4 8:05/K
31 Layla Rosa Kingwood TX 1071 5 2 175 8:07.3 8:07/K
32 Aubrey Gonzalez Porter TX 479 7 2 176 8:07.7 8:08/K
33 Emilia Kaciuba Humble TX 633 5 2 179 8:12.1 8:12/K
34 Cadence Smith Kingwood TX 1136 6 2 183 8:23.7 8:24/K
35 Paige Koym Kingwood TX 678 3 2 188 8:28.8 8:29/K
36 Adeline Cooke Porter TX 1381 3 2 204 9:01.2 9:01/K
37 Avery Chappell Humble TX 257 3 2 206 9:02.2 9:02/K
38 Leela Merritt Kingwood TX 1499 4 2 208 9:08.1 9:08/K
39 Quinn Collins-Tobey Milton MA 277 4 2 213 9:16.0 9:16/K
40 Sofia Amaro Porter TX 27 7 2 214 9:17.1 9:17/K
41 Reese Davis Huffman TX 1412 4 2 220 9:19.9 9:20/K
42 Charlotte Maxwell Kingwood TX 813 4 2 223 9:20.5 9:21/K
43 Emily Barton Spring TX 1436 4 2 226 9:23.4 9:23/K
44 Molly Auguste Humble TX 47 5 2 233 9:30.3 9:30/K
45 Kate Lockett Kingwood TX 753 6 2 234 9:36.8 9:37/K
46 Bennet McKenzie Kingwood TX 1568 3 2 243 9:52.6 9:53/K
47 Hollis Kenny Kingwood TX 657 6 2 252 10:20.8 10:21/K
48 Lainee McGehee Kingwood TX 838 7 2 253 10:21.2 10:21/K
49 Maggie Carruth Kingwood TX 1691 3 2 256 10:24.0 10:24/K
50 Elizabeth Becker Kingwood TX 83 4 2 258 10:24.5 10:25/K
51 Alyssa Garrison Humble TX 451 3 2 267 10:53.4 10:53/K
52 Macey Auguste Humble TX 46 4 2 269 11:40.7 11:41/K
53 Adalyn Lobue Porter TX 751 2 2 273 12:16.3 12:16/K
54 Rosie Brown 1730 3 2 282 14:19.2 14:19/K
55 Kayla Guzzo Kingwood TX 1650 7 2 742 1:02:39.5 62:40/K
56 Evelyn Labbe Kingwood TX 691 4 2 901 1:07:23.3 67:23/K
57 Charlie Hendrix-Vote Kingwood TX 548 4 2 970 1:09:58.4 69:58/K
58 Addyson Wilson Conroe TX 1329 5 2 986 1:10:27.5 70:28/K
59 Ashlynn Wilson Conroe TX 1331 5 2 987 1:10:27.5 70:28/K
60 Juliet Grier Houston TX 1407 7 2 1020 1:11:55.1 71:55/K
61 Helen Robertson Kingwood TX 1052 6 2 1060 1:14:37.5 74:38/K
62 Waverly Eads Humble TX 354 3 2 1101 1:17:08.0 77:08/K
63 Taylor Best Kingwood TX 99 5 2 1120 1:18:26.1 78:26/K
64 Kaydense Weeks Humble TX 1299 6 2 1361 1:31:14.9 91:15/K
65 Jameson Biesemeyer Kingwood TX 1386 4 2 1396 1:34:27.2 94:27/K
Top

Female 8 to 14

Place Name City Bib No Age Div Overall Total Time Pace
1 Eva Jacobsen Midlothian TX 600 13 2 6 3:46.8 3:47/K
2 Lucy Foltz Humble TX 418 12 2 7 3:48.1 3:48/K
3 Samantha Thibodeaux Kingwood TX 1226 12 2 10 3:57.7 3:58/K
4 Caroline Kinzel Humble TX 662 14 2 14 4:08.7 4:09/K
5 Molly Kinzel Humble TX 664 10 2 19 4:32.7 4:33/K
6 Madison Kelley Kingwood TX 1524 12 2 22 4:45.8 4:46/K
7 Avery Landphair Frisco TX 708 9 2 29 4:53.8 4:54/K
8 Audrey Johnson Georgetown TX 617 10 2 32 4:57.0 4:57/K
9 Madison Mulvaney Kingwood TX 928 14 2 35 5:00.5 5:01/K
10 Savannah Haddox Kingwood TX 1647 11 2 36 5:02.8 5:03/K
11 Raini Simmons Magnoliama TX 1122 8 2 37 5:05.0 5:05/K
12 Hadley Barker Kingwood TX 67 9 2 38 5:07.3 5:07/K
13 Caitlyn Thibodeaux Kingwood TX 1222 9 2 39 5:07.3 5:07/K
14 Annemarie Johnson Georgetown TX 616 12 2 40 5:09.1 5:09/K
15 Claire Parsons Kingwood TX 972 11 2 43 5:15.8 5:16/K
16 Abbey Heron Kingwood TX 559 12 2 47 5:20.3 5:20/K
17 Annelise O'Brien Kingwood TX 941 8 2 52 5:32.1 5:32/K
18 Holli Carruth Kingwood TX 1689 10 2 59 5:33.4 5:33/K
19 Makenzie Labani Humble TX 687 10 2 66 5:45.5 5:46/K
20 Maggie Marshall Houston TX 792 10 2 70 5:50.2 5:50/K
21 Sarah Pearce Kingwood TX 987 9 2 75 5:55.4 5:55/K
22 Amelia Fritz Kingwood TX 428 8 2 77 5:57.5 5:58/K
23 Abigail Baer Kingwood TX 1473 10 2 82 6:04.7 6:05/K
24 Abigail Brooks Kingwood TX 157 10 2 86 6:06.4 6:06/K
25 Sophie Marshall Houston TX 795 12 2 89 6:13.7 6:14/K
26 Marie Wakefield Kingwood TX 1288 10 2 90 6:15.8 6:16/K
27 Aria Dimaala Kingwood TX 1609 8 2 92 6:19.7 6:20/K
28 Tiffany Morris Kingwood TX 917 9 2 93 6:20.1 6:20/K
29 Haile Huffman Humble TX 592 10 2 97 6:24.3 6:24/K
30 Anastasia Apostolakis Kingwood TX 32 11 2 99 6:25.0 6:25/K
31 Sophia Alvarado Kingwood TX 23 11 2 105 6:32.0 6:32/K
32 Sydney Daniels Kingwood TX 303 10 2 116 6:42.2 6:42/K
33 Lexi Simmons Magnoliama TX 1118 10 2 117 6:43.1 6:43/K
34 Lauryn Bingley Kingwood TX 107 12 2 118 6:44.4 6:44/K
35 Janie Ebersbaker Kingwood TX 364 8 2 122 6:47.3 6:47/K
36 Maya Fritz Kingwood TX 429 11 2 125 6:51.9 6:52/K
37 Penelope Haddox Kingwood TX 1646 9 2 130 6:56.5 6:57/K
38 Carmen Johnson Kingwood TX 619 8 2 134 7:04.3 7:04/K
39 Ashlyn Landphair Frisco TX 1504 11 2 135 7:04.6 7:05/K
40 Aubrey Parsons Kingwood TX 969 9 2 138 7:07.2 7:07/K
41 Theresa Christman Kingwood TX 264 9 2 139 7:11.5 7:12/K
42 Halle Huffman Humble TX 593 10 2 141 7:14.7 7:15/K
43 Hadlie Hoyt Porter TX 585 8 2 144 7:18.7 7:19/K
44 Summer Scontrino Garland TX 1578 11 2 152 7:25.0 7:25/K
45 London Mejia Humble TX 869 9 2 159 7:34.0 7:34/K
46 Chloe McKee Humble TX 842 12 2 164 7:42.0 7:42/K
47 Sydney Labani Humble TX 688 13 2 166 7:43.5 7:44/K
48 Mackenzie Keillor Porter TX 650 10 2 174 8:05.9 8:06/K
49 Harley Jasinski Kingwood TX 1430 10 2 232 9:27.9 9:28/K
50 Kaitlyn Treadwell Kingwood TX 1252 10 2 246 10:05.1 10:05/K
51 Makayla Brady Kingwood TX 131 9 2 288 24:41.7 24:42/K
52 Audrey Kroeger Kingwood TX 682 8 2 289 25:10.1 25:10/K
53 Julia Shimel Kingwood TX 1645 13 2 313 48:43.3 48:43/K
54 Jenna Carter Kingwood TX 235 14 2 315 49:21.6 49:22/K
55 Carly Ahrens Humble TX 12 14 2 317 49:24.6 49:25/K
56 Isabel Monks Kingwood TX 902 14 2 379 53:16.6 53:17/K
57 Sasha Haltom Humble TX 513 12 2 418 54:41.8 54:42/K
58 Ainsley Tarver Porter TX 1217 13 2 426 54:59.8 55:00/K
59 Juliet Davenport Hallettsville TX 1389 12 2 441 55:34.4 55:34/K
60 Heidi Menchaca Austin TX 873 12 2 443 55:38.0 55:38/K
61 Jenna Jacobsen Midlothian TX 601 11 2 456 56:01.5 56:02/K
62 Sophie Wesolowski Humble TX 1311 14 2 464 56:12.6 56:13/K
63 Emma Lowe Kingwood TX 1361 12 2 471 56:19.6 56:20/K
64 Taylor Burns Cleveland TX 200 13 2 478 56:27.6 56:28/K
65 Emma Pearce Kingwood TX 983 13 2 488 56:51.0 56:51/K
66 Riley Weller Kingwood TX 1304 14 2 517 57:29.4 57:29/K
67 Jessica Richmond Kingwood TX 1403 14 2 535 57:53.6 57:54/K
68 Olivia Lucas Kingwood TX 767 8 2 553 58:12.8 58:13/K
69 Melanie Vaughn Crosby TX 1266 14 2 583 58:51.8 58:52/K
70 Aurora Spear Kingwood TX 1557 12 2 588 59:00.2 59:00/K
71 Camille Putnam Kingwood TX 1550 13 2 599 59:21.8 59:22/K
72 Isabella Grier Houston TX 1408 13 2 643 1:00:19.8 60:20/K
73 Madeleine Ebert Kingwood TX 369 14 2 644 1:00:19.8 60:20/K
74 Ainsley Dillard Kingwood TX 317 13 2 645 1:00:19.9 60:20/K
75 Katelyn Johnston Kingwood TX 628 8 2 651 1:00:35.6 60:36/K
76 Harper Haralson Kingwood TX 530 10 2 667 1:00:48.4 60:48/K
77 Christina Donahue Humble TX 1584 11 2 678 1:01:03.3 61:03/K
78 Addi Hebert Kingwood TX 541 12 2 694 1:01:19.5 61:20/K
79 Anne Durkee Kingwood TX 336 12 2 700 1:01:32.7 61:33/K
80 Jeanne Armel Kingwood TX 37 10 2 709 1:01:51.6 61:52/K
81 Avery Burns Cleveland TX 199 11 2 711 1:01:51.7 61:52/K
82 Callie Maple Kingwood TX 786 13 2 740 1:02:35.0 62:35/K
83 Bryn Avery Kingwood TX 1480 11 2 743 1:02:41.2 62:41/K
84 Alli Harrington Porter TX 532 14 2 754 1:02:57.6 62:58/K
85 Hannah Menchaca Austin TX 872 8 2 760 1:03:11.6 63:12/K
86 Kamryn Piatti Kingwood TX 996 13 2 796 1:04:20.7 64:21/K
87 Megan O'Brien Kingwood TX 944 13 2 799 1:04:26.2 64:26/K
88 Chloe Mendoza Kingwood TX 876 13 2 806 1:04:34.6 64:35/K
89 Clara Hollibaugh Kingwood TX 583 10 2 824 1:05:00.5 65:01/K
90 Reese Dillard Kingwood TX 320 11 2 845 1:05:40.1 65:40/K
91 Julia Labbe Kingwood TX 692 11 2 846 1:05:40.4 65:40/K
92 Hailey Scontrino Garland TX 1575 13 2 962 1:09:28.5 69:29/K
93 Caitlyn O'Reilly Humble TX 946 8 2 978 1:10:16.7 70:17/K
94 Amirah Hillier Kingwood TX 568 11 2 994 1:10:41.7 70:42/K
95 Jordan Henry Kingwood TX 550 11 2 1001 1:11:00.3 71:00/K
96 Nora Saxon Kingwood TX 1085 9 2 1013 1:11:30.0 71:30/K
97 Patteson Cash Kingwood TX 241 13 2 1024 1:12:11.5 72:12/K
98 Abby Morrow Kingwood TX 919 10 2 1026 1:12:29.6 72:30/K
99 Isabella Mendoza Kingwood TX 877 12 2 1039 1:13:24.0 73:24/K
100 Lily Medina Kingwood TX 859 12 2 1040 1:13:24.5 73:25/K
101 Gwen Saxon Kingwood TX 1083 12 2 1046 1:14:13.0 74:13/K
102 Tamir Shaw Kingwood TX 1603 12 2 1054 1:14:27.2 74:27/K
103 Elaine Robertson Kingwood TX 1050 8 2 1093 1:16:56.9 76:57/K
104 Jillian Barker Kingwood TX 68 9 2 1122 1:18:34.1 78:34/K
105 Ally Alfonso Porter TX 14 8 2 1133 1:19:41.2 79:41/K
106 Katelyn Keating Humble TX 642 12 2 1135 1:19:59.8 80:00/K
107 Suzanna Cradic Kingwood TX 1605 13 2 1136 1:20:01.1 80:01/K
108 Emma Green Kingwood TX 1616 13 2 1148 1:20:34.8 80:35/K
109 Isabella Gutierrez Humble TX 1573 14 2 1151 1:20:37.7 80:38/K
110 Elizabeth O'Reilly Humble TX 948 13 2 1154 1:20:40.7 80:41/K
111 Cate Leslie Kingwood TX 736 13 2 1166 1:21:31.2 81:31/K
112 Kaighly Davis Houston TX 306 10 2 1169 1:21:41.9 81:42/K
113 Lauren Baker Humble TX 57 11 2 1176 1:22:05.1 82:05/K
114 Peyton Hebert Kingwood TX 543 10 2 1177 1:22:10.0 82:10/K
115 Charlotte Swanson Kingwood TX 1206 11 2 1197 1:22:45.7 82:46/K
116 Leanne Lewis Humble TX 742 13 2 1229 1:24:13.4 84:13/K
117 Lily Bowden Kingwood TX 124 11 2 1234 1:24:18.6 84:19/K
118 Sadie Guerrero Houston TX 508 12 2 1254 1:25:15.2 85:15/K
119 Haylee Guerrero Houston TX 507 10 2 1256 1:25:15.9 85:16/K
Top

Female 15 and Over

Place Name City Bib No Age Div Overall Total Time Pace
1 Lael Daniels Kingwood TX 301 48 2 15 4:18.9 4:19/K
2 Wendy Page Huffman TX 962 44 2 27 4:51.5 4:52/K
3 Molly Borowicz Kingwood TX 121 41 2 76 5:56.4 5:56/K
4 Jennifer Moore Ignacio CO 905 32 2 81 6:04.4 6:04/K
5 Diana Tello Houston TX 1501 39 2 131 6:59.2 6:59/K
6 Haley Sosnik Kingwood TX 1169 34 2 155 7:31.7 7:32/K
7 Shannon Pelfrey Kingwood TX 1421 19 2 160 7:36.1 7:36/K
8 Julianne Baer Kingwood TX 1471 45 2 169 7:51.8 7:52/K
9 Erin Hanlon Kingwood TX 514 30 2 172 8:05.2 8:05/K
10 Heather Smith Kingwood TX 1141 41 2 178 8:10.2 8:10/K
11 Kitty Rosa Kingwood TX 1070 44 2 181 8:17.9 8:18/K
12 Pamela Mejia Humble TX 871 41 2 182 8:18.4 8:18/K
13 Sudha Gaur Kingwood TX 466 72 2 184 8:25.3 8:25/K
14 Andrea Baudoin Kingwood TX 76 35 2 185 8:26.8 8:27/K
15 Sara Koym Kingwood TX 679 37 2 187 8:28.2 8:28/K
16 Jennifer Christman Kingwood TX 263 44 2 195 8:38.8 8:39/K
17 Jennifer Cooke Porter TX 1379 38 2 203 9:01.1 9:01/K
18 Alison Keillor Porter TX 649 46 2 205 9:01.3 9:01/K
19 Amanda Hanna Kingwood TX 516 34 2 212 9:13.9 9:14/K
20 Elizabeth Amaro Porter TX 26 34 2 215 9:17.3 9:17/K
21 Mackenzie Kelley Kingwood TX 1525 16 2 219 9:19.7 9:20/K
22 Natalie Gaskamp Kingwood TX 460 40 2 221 9:19.9 9:20/K
23 Laci Davis Huffman TX 1411 36 2 222 9:20.0 9:20/K
24 Nicola Barton Spring TX 1437 34 2 225 9:23.1 9:23/K
25 Mary Maxwell Kingwood TX 815 39 2 227 9:23.8 9:24/K
26 Meredith Austin Kingwood TX 1448 35 2 231 9:27.0 9:27/K
27 Katelyn Tobey Kingwood TX 1521 16 2 235 9:43.0 9:43/K
28 Frederica Roldan North Las Vegas NV 1620 55 2 239 9:47.9 9:48/K
29 Yessica Gonzalez Porter TX 482 32 2 241 9:48.8 9:49/K
30 Sharon Billey Houston TX 104 44 2 245 10:00.3 10:00/K
31 Jade Roldan North Las Vegas NV 1621 22 2 249 10:07.9 10:08/K
32 Jordan Roldan North Las Vegas NV 1622 20 2 250 10:09.1 10:09/K
33 Ashley Fogleman Kingwood TX 411 35 2 251 10:13.0 10:13/K
34 Havana Carruth Kingwood TX 1693 15 2 254 10:21.3 10:21/K
35 Kristina Jasinski Kingwood TX 1432 15 2 259 10:25.2 10:25/K
36 Shannon Jasinski Kingwood TX 1429 43 2 260 10:26.4 10:26/K
37 Sarah Auguste Humble TX 48 31 2 261 10:32.4 10:32/K
38 Sarah McDermott Kingwood TX 832 29 2 265 10:53.0 10:53/K
39 Karen Abbott Broomfield CO 5 65 2 270 11:46.1 11:46/K
40 Carole Robison Kingwood TX 1057 61 2 271 12:12.9 12:13/K
41 Dayna Lobue Porter TX 752 27 2 272 12:16.2 12:16/K
42 Elizabeth Robison Kingwood TX 1498 28 2 274 12:24.5 12:25/K
43 Ashley Pearce Kingwood TX 981 34 2 279 13:22.7 13:23/K
44 Lauren Beaty Kingwood TX 81 31 2 284 14:21.1 14:21/K
45 Emilie Costello Kingwood TX 1643 16 2 287 14:45.2 14:45/K
46 Jodi Grandy Kingwood TX 489 31 2 291 40:06.9 40:07/K
47 Jacqueline Keifer Kingwood TX 645 38 2 293 40:07.7 40:08/K
48 Megan Keifer Kingwood TX 647 36 2 295 40:12.7 40:13/K
49 Sharon Keifer Kingwood TX 648 64 2 297 40:19.2 40:19/K
50 Courtney Broussard Lafayette LA 164 23 2 312 48:35.9 48:36/K
51 Rebecca Rhodes Kingwood TX 1046 15 2 322 49:40.2 49:40/K
52 Casey Timme Kingwood TX 1240 34 2 323 49:44.4 49:44/K
53 Carrie Labani Humble TX 685 37 2 338 50:51.3 50:51/K
54 Avanna Obrien Humble TX 951 33 2 343 51:16.6 51:17/K
55 Maddie Taylor Humble TX 1546 16 2 346 51:35.1 51:35/K
56 Andrea Maple Kingwood TX 785 44 2 349 51:43.1 51:43/K
57 Denise Kretzschmar New Caney TX 681 40 2 353 51:57.2 51:57/K
58 Hayley Booher Minneapolis MN 1596 24 2 354 52:03.4 52:03/K
59 Julie Mosier-Crosno Kingwood TX 925 48 2 356 52:10.6 52:11/K
60 Andrea Vidal Humble TX 1458 43 2 359 52:14.9 52:15/K
61 Katie Schmude Kingwood TX 1091 20 2 383 53:26.9 53:27/K
62 Andrea Ferguson Kingwood TX 395 28 2 384 53:30.6 53:31/K
63 Hillary Till Houston TX 1239 31 2 392 53:44.3 53:44/K
64 Anna Wrobel Houston TX 1354 25 2 395 53:50.2 53:50/K
65 Nidia Alvarado Kingwood TX 22 38 2 405 54:18.9 54:19/K
66 Holly Richards Kingwood TX 1047 44 2 409 54:24.3 54:24/K
67 Victoria Rutherford Kingwood TX 1075 22 2 414 54:34.2 54:34/K
68 Jacquie Wesolowski Humble TX 1310 46 2 417 54:37.2 54:37/K
69 Jennifer Browning Kingwood TX 1542 51 2 423 54:48.6 54:49/K
70 Haley Sauer Austin TX 1081 23 2 425 54:52.8 54:53/K
71 Mariah C. Hernandez Kingwood TX 557 19 2 427 55:00.2 55:00/K
72 Angie Wilson Conroe TX 1330 40 2 429 55:07.2 55:07/K
73 Kristin Jay Kingwood TX 612 50 2 431 55:15.6 55:16/K
74 Sydney Fletcher Kingwood TX 410 22 2 439 55:31.5 55:32/K
75 Melissa Hall Spring TX 510 31 2 442 55:36.5 55:37/K
76 Grace Sledge Kingwood TX 1130 15 2 449 55:46.2 55:46/K
77 Angela Bjornstad Kingwood TX 110 41 2 454 56:00.3 56:00/K
78 Julie Crochet Porter TX 297 40 2 457 56:01.8 56:02/K
79 Sarah Johnston Kingwood TX 631 38 2 458 56:02.1 56:02/K
80 Lisa Kauderer Kingwood TX 638 50 2 463 56:08.6 56:09/K
81 Jessica Jacobsen Midlothian TX 602 44 2 468 56:16.3 56:16/K
82 Emma McCarthy Kingwood TX 818 37 2 469 56:17.1 56:17/K
83 Rebecca Tribo Kingwood TX 1611 34 2 470 56:18.2 56:18/K
84 Carrie Finley Dallas TX 399 43 2 476 56:26.6 56:27/K
85 Abby Hudson Humble TX 589 17 2 484 56:41.6 56:42/K
86 Jama Henderson Humble TX 546 59 2 490 56:57.3 56:57/K
87 Rachel Calcote Kingwood TX 209 18 2 493 56:59.5 57:00/K
88 Jana Lowe Kingwood TX 1363 45 2 495 57:01.2 57:01/K
89 Cyndi Stringham Broomfield CO 1198 45 2 496 57:03.4 57:03/K
90 Cathy Trotti Humble TX 1254 26 2 498 57:04.2 57:04/K
91 Sydney Stanton Kingwood TX 1182 15 2 502 57:10.6 57:11/K
92 Brittney Wittenbrink Kingwood TX 1345 27 2 506 57:12.4 57:12/K
93 Caroline Wislar Kingwood TX 1337 23 2 507 57:14.2 57:14/K
94 Michelle Durkee Kingwood TX 339 50 2 509 57:17.3 57:17/K
95 Leticia Turrubiartes Humble TX 1633 42 2 514 57:27.9 57:28/K
96 Elizabeth Springer Austin TX 1178 24 2 520 57:31.0 57:31/K
97 Cailey Wambaugh Kingwood TX 1291 26 2 522 57:32.2 57:32/K
98 Courtney Bailey Kingwood TX 50 20 2 524 57:43.5 57:44/K
99 Kelly Jacobson Allen TX 604 43 2 525 57:43.7 57:44/K
100 Paige Daniels Kingwood TX 302 17 2 526 57:43.7 57:44/K
101 Amy Williams Kingwood TX 1320 30 2 528 57:45.9 57:46/K
102 Rebecca Braden Kingwood TX 129 21 2 531 57:48.8 57:49/K
103 Rachel Braden Kingwood TX 128 18 2 532 57:50.7 57:51/K
104 Julie Grabner Kingwoodkingwood TX 485 44 2 533 57:51.7 57:52/K
105 Debie Clinebell Humble TX 270 56 2 539 57:57.3 57:57/K
106 Sharla Gray Midland TX 492 40 2 541 57:57.5 57:58/K
107 Suzannah Bryan Humble TX 175 33 2 542 57:58.5 57:59/K
108 Michele Hunnicutt Humble TX 595 46 2 544 58:01.7 58:02/K
109 Lisa Rodger Humble TX 1058 49 2 545 58:03.5 58:04/K
110 Jacque Spear Kingwood TX 1559 29 2 546 58:04.5 58:05/K
111 Jessica Monk Kingwood TX 900 43 2 549 58:10.3 58:10/K
112 Cora Barker Kingwood TX 1639 20 2 550 58:11.6 58:12/K
113 Rowan Prothro Georgetown TX 1019 27 2 551 58:12.7 58:13/K
114 Krissy Lucas Kingwood TX 766 39 2 554 58:12.8 58:13/K
115 Melissa Snipes Atlanta GA 1158 47 2 556 58:14.8 58:15/K
116 Natalia Shimel Kingwood TX 1106 16 2 557 58:15.1 58:15/K
117 Erica Sambrooks Kingwood TX 1545 38 2 558 58:16.1 58:16/K
118 Kaitlin Smith Kingwood TX 1143 19 2 559 58:16.2 58:16/K
119 Noel Nix Albuquerque NM 1409 28 2 563 58:19.2 58:19/K
120 Donna Nix Kingwood TX 938 38 2 564 58:19.7 58:20/K
121 Rachael Lackey League City TX 701 34 2 566 58:22.1 58:22/K
122 Amanda Lackey Jersey City NJ 698 32 2 567 58:22.2 58:22/K
123 Lauren King New Caney TX 661 26 2 570 58:26.6 58:27/K
124 Arianna Shimel Kingwood TX 1105 20 2 572 58:27.8 58:28/K
125 Sharon Garcia Porter TX 449 37 2 573 58:28.6 58:29/K
126 Kristen Stephenson Temple TX 1186 29 2 575 58:32.4 58:32/K
127 Anita Giacobbe Kingwood TX 469 60 2 578 58:41.3 58:41/K
128 Virna Estrada Humble TX 1580 34 2 582 58:50.3 58:50/K
129 Jill Holthoff Kingwood TX 1508 53 2 586 58:58.5 58:59/K
130 Megan Holthoff Kingwood TX 1509 26 2 587 58:58.6 58:59/K
131 Cristina Thibodeaux Kingwood TX 1224 46 2 589 59:01.4 59:01/K
132 Cayla Hannon Kingwood TX 521 33 2 593 59:06.9 59:07/K
133 Carol Ina Neely Humble TX 932 39 2 595 59:13.2 59:13/K
134 Cece Spear Kingwood TX 1556 22 2 596 59:15.1 59:15/K
135 Michelle Roenz Humble TX 1062 46 2 605 59:29.4 59:29/K
136 Mary Limbaugh Kingwood TX 748 42 2 609 59:35.1 59:35/K
137 Debbie Fanelli Kingwood TX 385 44 2 610 59:35.8 59:36/K
138 Erica Alston Cleveland TX 18 40 2 613 59:39.4 59:39/K
139 Jenna Dowden Kingwood TX 331 26 2 614 59:39.5 59:40/K
140 Tess Manning Kingwood TX 783 29 2 615 59:40.8 59:41/K
141 Karen Introligator Kingwood TX 599 47 2 616 59:41.6 59:42/K
142 Jessica Hergott Kingwood TX 555 19 2 617 59:43.2 59:43/K
143 Michelle Wrobel Spring TX 1357 32 2 618 59:43.6 59:44/K
144 Brooke Carter Humble TX 1695 22 2 621 59:46.3 59:46/K
145 Katie Brown Houston TX 168 39 2 624 59:47.4 59:47/K
146 Alexandria Rogers Cleveland TX 1064 24 2 627 59:51.0 59:51/K
147 Elyse Carson Kingwood TX 229 45 2 628 59:53.2 59:53/K
148 Sydney Oliver Kingwood TX 958 24 2 633 1:00:03.5 60:04/K
149 Wendy Rutledge Kingwood TX 1076 44 2 639 1:00:12.3 60:12/K
150 Erin Patterson Kingwood TX 978 39 2 642 1:00:17.1 60:17/K
151 Hannah Beth Eakin Kingwoodkingwood TX 358 32 2 646 1:00:22.8 60:23/K
152 Brittany Bussey Kingwood TX 204 25 2 649 1:00:34.9 60:35/K
153 Barbara Bussey Kingwood TX 203 56 2 653 1:00:36.6 60:37/K
154 Margarita Viveros Kingwood TX 1276 32 2 656 1:00:40.6 60:41/K
155 Grace Kauderer Kingwood TX 1581 17 2 657 1:00:40.9 60:41/K
156 Julie Wright Humble TX 1351 36 2 660 1:00:43.1 60:43/K
157 Emily Hernandez Humble TX 556 21 2 663 1:00:43.8 60:44/K
158 Christy Warnke Humble TX 1295 33 2 664 1:00:44.0 60:44/K
159 Melanie Pessetti Kingwood TX 993 47 2 669 1:00:51.9 60:52/K
160 Rosana Biscardi Kingwood TX 108 49 2 670 1:00:52.6 60:53/K
161 Kelly Rhodes Kingwood TX 1045 48 2 672 1:00:57.6 60:58/K
162 Felicia Beswick Kingwood TX 102 47 2 673 1:00:58.8 60:59/K
163 Stephanie Morrow Kingwood TX 922 44 2 674 1:00:59.1 60:59/K
164 Teresa Garcia New Caney TX 450 24 2 682 1:01:04.9 61:05/K
165 Carolyn Arredondo Kingwood TX 40 20 2 689 1:01:12.1 61:12/K
166 Sarah Bell Humble TX 90 26 2 692 1:01:18.4 61:18/K
167 Kathryn Bingley Kingwood TX 106 16 2 693 1:01:18.9 61:19/K
168 Michelle Best Kingwood TX 98 40 2 695 1:01:21.9 61:22/K
169 Elly Willms Kingwood TX 1325 26 2 696 1:01:22.5 61:23/K
170 Madeline Meier Kingwood TX 863 21 2 704 1:01:42.7 61:43/K
171 Natalie Donahue Humble TX 1585 16 2 707 1:01:50.7 61:51/K
172 Camryn Cook Olathe KS 281 21 2 712 1:01:53.6 61:54/K
173 Jessica Verret Kingwood TX 1273 41 2 713 1:01:54.9 61:55/K
174 Kristal Martin Kingwood TX 798 29 2 714 1:01:55.4 61:55/K
175 Charity Moran Humble TX 909 32 2 716 1:01:58.4 61:58/K
176 Alexandra Marshall Houston TX 788 40 2 719 1:02:00.7 62:01/K
177 Jill Putnam Putnam Kingwood TX 1549 44 2 720 1:02:03.7 62:04/K
178 Mary Catherine Bordes Kingwood TX 1398 28 2 721 1:02:04.4 62:04/K
179 Mary Durkee Kingwood TX 338 18 2 723 1:02:05.3 62:05/K
180 Karina Contreras Kingwood TX 1623 39 2 724 1:02:05.7 62:06/K
181 Cherie Morgan Humble TX 913 50 2 725 1:02:06.1 62:06/K
182 Arianna Lasche San Marcos CA 713 28 2 726 1:02:09.3 62:09/K
183 Sofia Pina Kingwood TX 1005 22 2 727 1:02:11.3 62:11/K
184 Jacqueline Van Meter Austin TX 1259 44 2 728 1:02:13.6 62:14/K
185 Ximena Palma Humble TX 964 45 2 729 1:02:13.7 62:14/K
186 Lynn Cook Olathe KS 287 46 2 731 1:02:16.3 62:16/K
187 Blair Ebbs Humble TX 360 36 2 732 1:02:16.4 62:16/K
188 Amy Hudson Humble TX 590 38 2 733 1:02:18.0 62:18/K
189 Madison Stratton Bay City TX 1614 24 2 735 1:02:23.3 62:23/K
190 Carolina Jimenez Humble TX 615 24 2 736 1:02:30.8 62:31/K
191 Allison Baker Porter TX 53 33 2 739 1:02:33.5 62:34/K
192 Theresa Braden Kingwood TX 130 54 2 749 1:02:49.2 62:49/K
193 Katy Pina Kingwood TX 1004 53 2 751 1:02:53.3 62:53/K
194 Claudia Neef Humble TX 931 61 2 753 1:02:54.2 62:54/K
195 Ariana Roy Porter TX 1073 22 2 755 1:02:57.7 62:58/K
196 Madison Bennett Kingwood TX 95 18 2 757 1:03:00.5 63:01/K
197 Teresa Rubino Kingwood TX 1074 48 2 762 1:03:15.9 63:16/K
198 Cathy Jenkins Atlanta GA 614 51 2 763 1:03:16.1 63:16/K
199 Cortney Dyer Humble TX 344 39 2 764 1:03:20.4 63:20/K
200 Terri Stowers Kingwood TX 1195 54 2 765 1:03:20.7 63:21/K
201 Laura Johnson Kingwood TX 625 45 2 766 1:03:26.5 63:27/K
202 Claire Stoddart Kingwood TX 1190 41 2 767 1:03:26.8 63:27/K
203 Alexandra Richmond Kingwood TX 1401 17 2 770 1:03:32.1 63:32/K
204 Marla Ferrier Humble TX 398 37 2 771 1:03:33.1 63:33/K
205 Mary Beth Meier Kingwood TX 864 25 2 773 1:03:36.0 63:36/K
206 Beth Spear Kingwood TX 1555 49 2 774 1:03:38.3 63:38/K
207 Diana Cortina Humble TX 290 52 2 775 1:03:40.9 63:41/K
208 Stephanie Pelfrey Kingwood TX 1419 45 2 776 1:03:43.3 63:43/K
209 Erica Tatom Kingwood TX 1441 19 2 779 1:03:53.2 63:53/K
210 Holly Oliver Conroe TX 956 31 2 781 1:03:55.9 63:56/K
211 Meg Beach Allen TX 79 43 2 782 1:03:56.3 63:56/K
212 Heather Richmond Kingwood TX 1400 51 2 783 1:03:57.4 63:57/K
213 Emily Stolarz Kingwood TX 1194 25 2 786 1:04:00.6 64:01/K
214 Jasmin Lye Kingwood TX 769 26 2 789 1:04:01.6 64:02/K
215 Amy Avery Kingwood TX 1482 45 2 791 1:04:05.0 64:05/K
216 Layna Gant Kingwood TX 442 33 2 794 1:04:20.0 64:20/K
217 Katherine Rhodes Kingwood TX 1044 16 2 797 1:04:21.1 64:21/K
218 Jennifer O'Brien Kingwood TX 943 42 2 800 1:04:26.4 64:26/K
219 Madeline Valente Morton Grove IL 1257 22 2 801 1:04:28.7 64:29/K
220 Heather Axline Kingwood TX 1378 32 2 805 1:04:33.9 64:34/K
221 Katherine Farr Humble TX 1485 34 2 807 1:04:35.7 64:36/K
222 Kim Daniel Humble TX 299 32 2 808 1:04:35.7 64:36/K
223 Gabriele Sausnock Kingwood TX 1392 49 2 811 1:04:42.2 64:42/K
224 Megan Hill Highlands TX 565 33 2 812 1:04:42.6 64:43/K
225 Kimberly Smith Pflugerville TX 1145 49 2 814 1:04:44.5 64:45/K
226 Teigan Ahrendt Kingwood TX 1475 19 2 818 1:04:47.3 64:47/K
227 Cindy Brothers Porter TX 163 47 2 820 1:04:51.2 64:51/K
228 Michelle Eakin Kingwood TX 359 52 2 821 1:04:53.8 64:54/K
229 Ellen Chaney Humble TX 253 38 2 822 1:04:55.9 64:56/K
230 Debbie Bennett Kingwood TX 94 53 2 823 1:04:57.1 64:57/K
231 Candace Breaux Spring TX 139 28 2 827 1:05:06.3 65:06/K
232 Claire Baker Dallas TX 55 40 2 828 1:05:07.8 65:08/K
233 Gina Ellis Kingwood TX 380 49 2 829 1:05:11.2 65:11/K
234 Laurel Hansen Fort Worth TX 523 23 2 831 1:05:14.8 65:15/K
235 Becky Endtricht Kingwood TX 382 41 2 832 1:05:17.5 65:18/K
236 Cecilia Ojeda Humble TX 952 19 2 835 1:05:20.8 65:21/K
237 Chrissy Roberts Humble TX 1048 41 2 836 1:05:20.9 65:21/K
238 Holly Novak Humble TX 939 32 2 837 1:05:29.2 65:29/K
239 Florita Ray-Welsh Kingwood TX 1032 46 2 838 1:05:31.0 65:31/K
240 Carol Moellenberndt Sturgeon Bay WI 898 68 2 839 1:05:31.8 65:32/K
241 Amanda Tobey Milton MA 1245 40 2 840 1:05:33.5 65:34/K
242 Megan Dusablon Kingwood TX 341 15 2 841 1:05:34.5 65:35/K
243 Sara Jamieson Kingwood TX 607 16 2 842 1:05:35.1 65:35/K
244 Anna Gudenrath Humble TX 505 29 2 848 1:05:40.9 65:41/K
245 Keturah Johnson Georgetown TX 624 42 2 849 1:05:41.8 65:42/K
246 Jenny Parsons Humble TX 974 20 2 850 1:05:41.9 65:42/K
247 Lindsay Medina Kingwood TX 860 40 2 851 1:05:44.6 65:45/K
248 Casey Christman Kingwood TX 1486 36 2 852 1:05:45.5 65:46/K
249 Elissa Fontenot Kingwood TX 420 41 2 855 1:05:46.1 65:46/K
250 Robyn Marshall Houston TX 793 23 2 856 1:05:57.9 65:58/K
251 Cara Allen Fort Worth TX 1630 29 2 857 1:06:02.1 66:02/K
252 Morgan Llewellyn Houston TX 750 26 2 860 1:06:07.0 66:07/K
253 Kallie Matheny Porter TX 801 23 2 861 1:06:11.7 66:12/K
254 Elicia Swanson Kingwood TX 1208 42 2 862 1:06:15.2 66:15/K
255 Danielle Steingreaber Kingwood TX 1184 27 2 867 1:06:18.7 66:19/K
256 Terri Denton Porter TX 312 44 2 871 1:06:23.8 66:24/K
257 Karen Bullman Kingwood TX 188 42 2 872 1:06:27.8 66:28/K
258 Stacey Willms Kingwood TX 1328 53 2 873 1:06:28.3 66:28/K
259 Alexandria Preston Kingwood TX 1014 23 2 874 1:06:28.4 66:28/K
260 Alaina Hergott Kingwood TX 554 21 2 875 1:06:30.0 66:30/K
261 Kassie Velasco Kingwood TX 1268 18 2 876 1:06:30.1 66:30/K
262 Megan Parsons Humble TX 975 23 2 877 1:06:32.5 66:33/K
263 Becky Parsons Humble TX 970 48 2 878 1:06:32.6 66:33/K
264 Annie Velasco Kingwood TX 1267 22 2 881 1:06:37.0 66:37/K
265 Vicki Wissing Shreveport LA 1540 63 2 883 1:06:39.7 66:40/K
266 Courtney Breeding Humble TX 140 38 2 884 1:06:40.5 66:41/K
267 Patricia Prahl Little Elm TX 1013 57 2 887 1:06:57.3 66:57/K
268 Renee Alcala Kingwood TX 1523 15 2 888 1:07:01.4 67:01/K
269 Celia Salgado Humble TX 1078 30 2 890 1:07:05.6 67:06/K
270 Joetta Carter Humble TX 236 48 2 891 1:07:06.9 67:07/K
271 Rebekah Carter Humble TX 238 19 2 893 1:07:11.4 67:11/K
272 Kassie Dyakon Kingwood TX 342 26 2 895 1:07:15.0 67:15/K
273 Harper Michaels Kingwood TX 1384 17 2 896 1:07:18.4 67:18/K
274 Cheyenne Parenti Kingwood TX 965 17 2 900 1:07:23.3 67:23/K
275 Roxanne Labbe Kingwood TX 694 41 2 904 1:07:26.1 67:26/K
276 Jane Henry Kingwood TX 549 42 2 905 1:07:27.4 67:27/K
277 Kyla Alvarado Humble TX 21 21 2 908 1:07:35.0 67:35/K
278 Liz Dillard Kingwood TX 319 43 2 910 1:07:49.6 67:50/K
279 Johnene Ditmanson Kingwood TX 327 47 2 911 1:07:59.2 67:59/K
280 Katie Laskowski Kingwood TX 716 34 2 912 1:08:00.8 68:01/K
281 Regan Thompson Porter TX 1232 41 2 914 1:08:01.6 68:02/K
282 Emma Klitus Porter TX 668 15 2 916 1:08:01.7 68:02/K
283 Lexi Beswick Kingwood TX 103 22 2 917 1:08:08.2 68:08/K
284 Emma Brawn Houston TX 1447 41 2 918 1:08:14.9 68:15/K
285 Stephanie Nappier Huffman TX 930 46 2 919 1:08:15.6 68:16/K
286 Lynn Dyakon Kingwood TX 343 56 2 921 1:08:17.7 68:18/K
287 Sandra Bittle Kingwood TX 109 46 2 924 1:08:25.8 68:26/K
288 Cobi Reynolds Porter TX 1037 46 2 925 1:08:32.3 68:32/K
289 Lori Tatum Humble TX 1219 52 2 928 1:08:34.3 68:34/K
290 Danielle Albro Kingwood TX 13 54 2 929 1:08:34.4 68:34/K
291 Cassidy Bryce Kingwood TX 177 21 2 931 1:08:35.4 68:35/K
292 Jamie Reneau Kingwood TX 1035 44 2 934 1:08:36.3 68:36/K
293 Sarah Mercier Kingwood TX 880 39 2 935 1:08:37.3 68:37/K
294 Savannah Bryce Kingwood TX 178 23 2 936 1:08:37.8 68:38/K
295 Kathryn Collins Milton MA 276 38 2 937 1:08:40.6 68:41/K
296 Beth Ebersbaker Kingwood TX 363 44 2 938 1:08:42.0 68:42/K
297 Sarah Dutcher Porter TX 1385 29 2 939 1:08:42.9 68:43/K
298 Dawn Harrell Kingwood TX 1464 41 2 940 1:08:49.4 68:49/K
299 Stacey White Kingwood TX 1317 44 2 942 1:08:52.8 68:53/K
300 Diane Bailey Kingwood TX 51 53 2 944 1:09:05.3 69:05/K
301 Lindsey Simmons Magnoliama TX 1119 37 2 945 1:09:07.0 69:07/K
302 Annie Breitling Garland TX 1576 46 2 947 1:09:12.9 69:13/K
303 Cheri Dixon Humble TX 328 48 2 949 1:09:13.6 69:14/K
304 Angela Park Kingwood TX 966 55 2 950 1:09:15.0 69:15/K
305 Crickett Simmons Kingwood TX 1113 42 2 953 1:09:20.4 69:20/K
306 Jennifer Long Houston TX 756 49 2 954 1:09:21.0 69:21/K
307 Rachel Henry Kingwood TX 552 17 2 955 1:09:21.1 69:21/K
308 Sulene Romero Conroe TX 1067 29 2 956 1:09:21.1 69:21/K
309 Shannon O'Neil Humble TX 945 42 2 957 1:09:23.0 69:23/K
310 Janeen Leach Conroe TX 721 38 2 960 1:09:27.3 69:27/K
311 Jennifer Higginbotham Crosby TX 564 27 2 961 1:09:27.4 69:27/K
312 Vicki Gilmer Magnolia TX 476 56 2 963 1:09:30.5 69:31/K
313 Chelsea Tittle Kingwood TX 1244 34 2 964 1:09:33.6 69:34/K
314 Megan Hillier Kingwood TX 577 20 2 965 1:09:42.8 69:43/K
315 Theresa Freeman Kingwood TX 426 56 2 966 1:09:52.7 69:53/K
316 Melissa Hartfiel Kingwood TX 538 43 2 968 1:09:56.5 69:57/K
317 Ingrid Pina Kingwood TX 1002 19 2 969 1:09:57.1 69:57/K
318 Lauren Hendrix Kingwood TX 547 39 2 971 1:09:59.8 70:00/K
319 Laura Vote Kingwood TX 1280 32 2 972 1:10:00.0 70:00/K
320 Caitlyn Ravlin Kingwood TX 1031 25 2 973 1:10:00.6 70:01/K
321 Lonia Brown Kingwood TX 169 57 2 974 1:10:08.8 70:09/K
322 Sarah Wakefield Kingwood TX 1290 39 2 977 1:10:13.9 70:14/K
323 Paige Martin Kingwood TX 799 63 2 980 1:10:25.9 70:26/K
324 Jessica Hillier Kingwood TX 575 20 2 981 1:10:26.1 70:26/K
325 Brittney Hillier Kingwood TX 572 18 2 982 1:10:26.2 70:26/K
326 Maison Mote Houston TX 926 18 2 984 1:10:26.8 70:27/K
327 Madison Lloyd Kingwood TX 1572 17 2 985 1:10:26.9 70:27/K
328 Tracey Prothro Humble TX 1020 57 2 989 1:10:28.6 70:29/K
329 Kelly Snyder Kingwood TX 1164 25 2 990 1:10:29.0 70:29/K
330 Summer McKee Porter TX 850 41 2 999 1:10:55.0 70:55/K
331 Amanda McKee Houston TX 841 39 2 1000 1:10:56.6 70:57/K
332 Heather Keller Kingwood TX 655 41 2 1003 1:11:05.4 71:05/K
333 Tanya Rhoades Kingwood TX 1042 43 2 1007 1:11:15.2 71:15/K
334 Tammie Ramcharan Humble TX 1030 42 2 1008 1:11:19.3 71:19/K
335 Fauna Osborne Humble TX 960 45 2 1009 1:11:19.7 71:20/K
336 Nancy Cozad Kingwood TX 1520 58 2 1012 1:11:26.2 71:26/K
337 Robin Apostolakis Kingwood TX 35 42 2 1014 1:11:33.6 71:34/K
338 Kendall Burton Kingwood TX 202 28 2 1015 1:11:36.0 71:36/K
339 Paige Colbert Kingwood TX 1484 19 2 1018 1:11:44.5 71:45/K
340 Amy Hitchcock Kingwood TX 578 48 2 1022 1:12:06.9 72:07/K
341 Leslie Leslie Kingwood TX 738 43 2 1023 1:12:07.2 72:07/K
342 Barbara Lawrence Wexford PA 718 75 2 1028 1:12:46.8 72:47/K
343 Peggy Astor Humble TX 43 43 2 1029 1:12:48.8 72:49/K
344 Rachel Kaufman San Antonio TX 1600 19 2 1031 1:13:01.9 73:02/K
345 Nicole Lemon Kingwood TX 735 40 2 1032 1:13:02.0 73:02/K
346 Kayla Janikula Kingwood TX 1598 19 2 1033 1:13:02.4 73:02/K
347 Barbara Long Kingwood TX 755 51 2 1037 1:13:16.6 73:17/K
348 Arwen Rhea Porter TX 1039 36 2 1043 1:13:39.9 73:40/K
349 Susan Wingert Kingwood TX 1516 63 2 1047 1:14:20.0 74:20/K
350 Heather Early Kingwood TX 1517 34 2 1048 1:14:20.0 74:20/K
351 Holly Dibrell Kingwood TX 1515 64 2 1049 1:14:20.5 74:21/K
352 Marcy Candela Spring TX 218 39 2 1053 1:14:27.1 74:27/K
353 Sue Lewis Humble TX 744 71 2 1058 1:14:32.5 74:33/K
354 Leanne Armel Kingwood TX 39 54 2 1069 1:15:45.7 75:46/K
355 Stacy Sherman Kingwood TX 1104 50 2 1070 1:15:45.8 75:46/K
356 Anna Armel Kingwood TX 36 20 2 1071 1:15:46.0 75:46/K
357 Lorna Hercl Kingwood TX 1428 55 2 1072 1:15:46.5 75:47/K
358 Courtney Labome Kingwood TX 696 37 2 1073 1:15:51.0 75:51/K
359 Kari Ellis New Caney TX 381 22 2 1076 1:16:05.8 76:06/K
360 Cindy Johnson Kingwood TX 621 54 2 1079 1:16:17.5 76:18/K
361 Savanna Reyes League City TX 1510 27 2 1083 1:16:22.1 76:22/K
362 Paige Cronin Dallas TX 1394 31 2 1086 1:16:32.1 76:32/K
363 Suzie Boyd Midland TX 1397 59 2 1087 1:16:32.7 76:33/K
364 Tricia Tinnin Kingwood TX 1243 46 2 1088 1:16:35.7 76:36/K
365 Christina Vaughn Crosby TX 1263 37 2 1092 1:16:50.5 76:51/K
366 Hannah Hanz Kingwood TX 526 22 2 1095 1:17:03.1 77:03/K
367 Lauren Lee Kingwood TX 729 19 2 1096 1:17:03.3 77:03/K
368 Paula Tobey Kingwood TX 1247 44 2 1097 1:17:05.0 77:05/K
369 Tasha Cook Olathe KS 289 48 2 1098 1:17:06.1 77:06/K
370 Haley Eads Humble TX 351 35 2 1102 1:17:08.7 77:09/K
371 Cristina Madrid Kingwood TX 773 33 2 1103 1:17:14.1 77:14/K
372 Meghan Robertson Kingwood TX 1053 42 2 1105 1:17:25.0 77:25/K
373 April Haralson Kingwood TX 528 41 2 1106 1:17:25.3 77:25/K
374 Sarabeth Hanz Kingwood TX 527 18 2 1110 1:17:35.1 77:35/K
375 Kim Williams Kingwood TX 1529 46 2 1111 1:17:37.5 77:38/K
376 Heather Farrell Kingwood TX 388 54 2 1113 1:17:50.5 77:51/K
377 Adelaide Laplante Kingwood TX 709 23 2 1118 1:18:15.5 78:16/K
378 Justine Gill Kingwood TX 1496 53 2 1128 1:19:38.9 79:39/K
379 Mary Fisher Kingwood TX 403 64 2 1129 1:19:39.3 79:39/K
380 Nikole Christian Kingwood TX 262 30 2 1130 1:19:39.6 79:40/K
381 Steffani Morton Porter TX 924 28 2 1134 1:19:51.5 79:52/K
382 Diane Manning Kingwood TX 780 61 2 1138 1:20:12.3 80:12/K
383 Karen Tyrell Houston TX 1255 62 2 1141 1:20:21.1 80:21/K
384 Amber Mehaffey Fort Worth TX 1624 24 2 1143 1:20:27.5 80:28/K
385 Pamela Morgan Kingwoodkingwood TX 915 52 2 1145 1:20:29.0 80:29/K
386 Stephanie Cash Kingwood TX 243 49 2 1147 1:20:31.2 80:31/K
387 Courtney Garza Humble TX 453 31 2 1150 1:20:37.1 80:37/K
388 Madison Badura Kingwood TX 1619 22 2 1152 1:20:40.1 80:40/K
389 Melinda O'Reilly Humble TX 949 40 2 1153 1:20:40.5 80:41/K
390 Catherine Hutchings Kingwood TX 1376 64 2 1155 1:20:47.2 80:47/K
391 Cara Ellis Kingwood TX 377 15 2 1157 1:20:51.0 80:51/K
392 Tara Chapman Kingwood TX 1491 37 2 1160 1:20:57.4 80:57/K
393 Jamie Beckham Kingwood TX 87 26 2 1161 1:20:59.5 81:00/K
394 Harper Lallier Humble TX 705 20 2 1162 1:21:18.0 81:18/K
395 Courtney Igoe Humble TX 598 39 2 1163 1:21:23.1 81:23/K
396 Kristi Imperato Kingwood TX 1638 48 2 1165 1:21:31.0 81:31/K
397 Colleen Richter Spring TX 1455 29 2 1167 1:21:32.9 81:33/K
398 Gladys Calongne Porter TX 1417 84 2 1168 1:21:33.0 81:33/K
399 Pam Wilson Houston TX 1336 64 2 1172 1:21:59.2 81:59/K
400 Haley Wiley Kingwood TX 1319 40 2 1173 1:21:59.7 82:00/K
401 Lindsey Carter Kingwood TX 237 15 2 1174 1:22:01.8 82:02/K
402 Tara Baker Humble TX 60 45 2 1175 1:22:04.8 82:05/K
403 Elizabeth Marshall Kingwood TX 789 51 2 1178 1:22:22.3 82:22/K
404 Emily Marshall Kingwood TX 790 20 2 1179 1:22:22.7 82:23/K
405 Alexandra Plummer Porter TX 1487 20 2 1180 1:22:24.0 82:24/K
406 Nicole Kell Kingwood TX 652 20 2 1181 1:22:24.1 82:24/K
407 Debbie Lee Kingwood TX 726 55 2 1182 1:22:25.2 82:25/K
408 Dawn Vogel Kingwood TX 1278 51 2 1184 1:22:26.4 82:26/K
409 Nicole Green Kingwood TX 1615 52 2 1186 1:22:28.7 82:29/K
410 Mardy Flanagan Kingwood TX 405 60 2 1189 1:22:32.2 82:32/K
411 Hannah Wood Kingwood TX 1347 26 2 1190 1:22:32.3 82:32/K
412 Lauren Wood Kingwood TX 1348 59 2 1191 1:22:33.0 82:33/K
413 Tiffany Thomasson Huffman TX 1227 32 2 1192 1:22:34.0 82:34/K
414 Lisa Decker Kingwood TX 308 33 2 1193 1:22:37.2 82:37/K
415 Susan Grubbs Kingwood TX 504 43 2 1194 1:22:40.2 82:40/K
416 Nicole Miller Houston TX 895 36 2 1198 1:22:47.6 82:48/K
417 Monica Garcia Kingwood TX 448 40 2 1201 1:23:09.4 83:09/K
418 Lacey Larpenter Porter TX 712 36 2 1203 1:23:14.5 83:15/K
419 Krystyl Maulfair Houston TX 810 32 2 1204 1:23:15.0 83:15/K
420 Susan Davis Daphne AL 307 52 2 1205 1:23:26.9 83:27/K
421 Kelly Fletcher Kingwood TX 409 23 2 1206 1:23:32.5 83:33/K
422 Terri Gibson Kingwood TX 472 61 2 1209 1:23:38.2 83:38/K
423 Mary Brenner Kingwood TX 144 55 2 1211 1:23:42.5 83:43/K
424 Emma Ebert Kingwood TX 367 18 2 1213 1:23:50.1 83:50/K
425 Elizabeth Brook Davis Houston TX 305 44 2 1214 1:23:50.4 83:50/K
426 Mary Lallier Humble TX 706 55 2 1215 1:23:50.5 83:51/K
427 Eleanor Black Humble TX 114 41 2 1216 1:23:50.7 83:51/K
428 Annette Ebert Kingwood TX 365 56 2 1217 1:23:51.2 83:51/K
429 Sophie Ebert Kingwood TX 370 18 2 1219 1:23:52.1 83:52/K
430 Kim Calcote Kingwood TX 207 49 2 1220 1:23:52.5 83:53/K
431 Alison Hillier Kingwood TX 567 46 2 1221 1:24:00.8 84:01/K
432 Jen Hillier Kingwood TX 574 50 2 1222 1:24:01.3 84:01/K
433 Amy Ahrens Kingwood TX 11 44 2 1223 1:24:01.3 84:01/K
434 Jill Weller Kingwood TX 1303 39 2 1224 1:24:01.6 84:02/K
435 Myrna Barrick Humble TX 72 68 2 1225 1:24:03.2 84:03/K
436 Kimberly Burleigh Humble TX 193 53 2 1226 1:24:05.9 84:06/K
437 Maritia Wilson Kingwoodkingwood TX 1601 58 2 1227 1:24:07.1 84:07/K
438 Emma Kegel Humble TX 643 70 2 1228 1:24:07.7 84:08/K
439 Diane Swendsen Crosby TX 1210 62 2 1231 1:24:16.2 84:16/K
440 Debra Snell Humble TX 1156 52 2 1232 1:24:17.5 84:18/K
441 Christa Hellmers Humble TX 545 22 2 1233 1:24:18.0 84:18/K
442 Cheri Simmons Porter TX 1110 62 2 1236 1:24:37.7 84:38/K
443 Marianna Simmons Houston TX 1120 36 2 1237 1:24:38.2 84:38/K
444 Madeline Chambers Kingwood TX 252 23 2 1238 1:24:40.3 84:40/K
445 Kathy Chambers Kingwood TX 251 55 2 1239 1:24:41.2 84:41/K
446 Emma Chambers Kingwood TX 250 15 2 1240 1:24:41.2 84:41/K
447 Maria Posada Shreveport LA 1009 28 2 1243 1:24:46.3 84:46/K
448 Stephanie Blado Kingwood TX 117 47 2 1247 1:25:02.9 85:03/K
449 Terri Bowden Kingwood TX 125 33 2 1249 1:25:04.3 85:04/K
450 Belinda Mendoza Kingwood TX 875 40 2 1250 1:25:06.0 85:06/K
451 Linda Ferdows Kingwood TX 392 56 2 1257 1:25:16.1 85:16/K
452 Chloe Klitus Porter TX 667 16 2 1258 1:25:20.1 85:20/K
453 Debra Campbell Kingwood TX 1697 68 2 1260 1:25:25.3 85:25/K
454 Carsyn Rains Cedar Rapids IA 1026 16 2 1261 1:25:45.4 85:45/K
455 Virginia Saxon Kingwood TX 1086 40 2 1263 1:25:49.4 85:49/K
456 Susan Meyer Morton Grove IL 1687 55 2 1264 1:26:13.3 86:13/K
457 Sarah Abbott Broomfield CO 8 32 2 1266 1:26:27.5 86:28/K
458 Jennifer Cook Kingwood TX 285 29 2 1267 1:26:31.3 86:31/K
459 Chloe Clark Kingwood TX 267 17 2 1268 1:26:37.7 86:38/K
460 Madison Burke Omaha NE 190 26 2 1269 1:26:37.8 86:38/K
461 Nancy Ruediger New Caney TX 1416 67 2 1271 1:26:47.1 86:47/K
462 Cheryl Burlone Webster TX 196 36 2 1276 1:27:11.6 87:12/K
463 Lisa Kaldheim Kingwood TX 636 63 2 1278 1:27:25.3 87:25/K
464 Harriett Oliver Kingwood TX 955 57 2 1279 1:27:27.2 87:27/K
465 Katie Spartz Kingwood TX 1173 17 2 1280 1:27:30.7 87:31/K
466 Ana Maria Alvarez Houston TX 24 49 2 1281 1:27:38.3 87:38/K
467 Karen McClelland Porter TX 822 61 2 1285 1:27:45.4 87:45/K
468 Shirley Marshall Kingwood TX 794 75 2 1289 1:28:04.7 88:05/K
469 Emily McGehee Kingwood TX 836 35 2 1290 1:28:27.5 88:28/K
470 Marissa Gay Kingwood TX 1644 17 2 1292 1:28:32.6 88:33/K
471 Michelle Wilson Houston TX 1335 36 2 1293 1:28:35.8 88:36/K
472 Kelly Becker Kingwood TX 85 39 2 1294 1:28:36.5 88:37/K
473 Anita Stetson Kingwood TX 1187 42 2 1295 1:28:36.5 88:37/K
474 Laura Cash Kingwood TX 239 15 2 1297 1:28:48.5 88:49/K
475 Charlee Poulin Kingwood TX 1011 15 2 1298 1:28:49.1 88:49/K
476 Kate Tiedtke Kingwood TX 1237 15 2 1299 1:28:49.1 88:49/K
477 Jacqueline Gilliam Kingwood TX 474 41 2 1303 1:28:54.7 88:55/K
478 Jenna Simpson Kingwood TX 1127 15 2 1305 1:28:57.1 88:57/K
479 Becky Hebert Kingwood TX 542 41 2 1306 1:28:58.8 88:59/K
480 Maylynn Icken Humble TX 1599 74 2 1307 1:28:59.7 89:00/K
481 Erin Selk Kingwood TX 1586 35 2 1309 1:29:13.9 89:14/K
482 Katelyn Parker Chicago IL 968 22 2 1310 1:29:17.4 89:17/K
483 Madison Scafuri Humble TX 1089 18 2 1311 1:29:18.1 89:18/K
484 Sara Brenner Kingwood TX 145 23 2 1312 1:29:22.6 89:23/K
485 Emily Crawford Kingwood TX 294 23 2 1313 1:29:23.7 89:24/K
486 Patricia Hernandez Houston TX 558 39 2 1314 1:29:24.2 89:24/K
487 Paula Pyle Kingwood TX 1021 56 2 1315 1:29:25.8 89:26/K
488 Kris Janik Porter TX 611 53 2 1317 1:29:29.9 89:30/K
489 Kimberly Brookhouser Humble TX 156 50 2 1319 1:29:42.1 89:42/K
490 Makenna McFerrin Kingwood TX 835 22 2 1320 1:29:42.2 89:42/K
491 Bailey Janik Houston TX 609 23 2 1321 1:29:42.6 89:43/K
492 Jane Carter Humble TX 234 75 2 1322 1:29:42.7 89:43/K
493 Courtney Janik Porter TX 610 21 2 1323 1:29:43.0 89:43/K
494 Bonnie McFerrin Humble TX 833 50 2 1324 1:29:43.7 89:44/K
495 Caryn Kirbow Kingwood TX 665 22 2 1325 1:29:43.9 89:44/K
496 Becky Lippman Kingwood TX 1414 61 2 1326 1:29:45.3 89:45/K
497 Christine Scafuri Humble TX 1088 49 2 1327 1:29:49.3 89:49/K
498 Maureen Wheatley Kingwood TX 1315 58 2 1330 1:30:00.0 90:00/K
499 Robyn Brown Humble TX 173 45 2 1331 1:30:07.7 90:08/K
500 Melissa Spartz Kingwood TX 1175 47 2 1333 1:30:09.5 90:10/K
501 Pamela Messer Kingwood TX 883 63 2 1335 1:30:15.7 90:16/K
502 Jessica Messer Kingwood TX 881 26 2 1337 1:30:16.0 90:16/K
503 Heather Keating Humble TX 641 42 2 1338 1:30:18.9 90:19/K
504 Allie Bates Kingwood TX 74 17 2 1339 1:30:21.4 90:21/K
505 Marissa Waring Kingwood TX 1626 37 2 1340 1:30:23.0 90:23/K
506 Sawyer Bryce Kingwood TX 179 16 2 1341 1:30:25.1 90:25/K
507 Beth Simpson Kingwood TX 1125 52 2 1342 1:30:25.4 90:25/K
508 Kim Fazzino Kingwood TX 1591 50 2 1343 1:30:26.2 90:26/K
509 Shawn Heidinger 1727 56 2 1348 1:30:33.2 90:33/K
510 Cameron Bryce Kingwood TX 176 55 2 1351 1:30:38.1 90:38/K
511 Charity Combs Kingwood TX 278 36 2 1352 1:30:39.2 90:39/K
512 Kimberly Gaur Kingwood TX 463 49 2 1353 1:30:45.6 90:46/K
513 Emily Kluge Porter TX 670 17 2 1354 1:30:51.7 90:52/K
514 Suzi Spinks Porter TX 1177 49 2 1356 1:30:57.9 90:58/K
515 Caroline Gonzales Crosby TX 478 48 2 1357 1:30:58.2 90:58/K
516 Marge Meyer-Nugent Humble TX 888 69 2 1358 1:31:01.1 91:01/K
517 Sharla Barker Kingwood TX 69 40 2 1363 1:31:29.4 91:29/K
518 Amy Treadwell Kingwood TX 1250 45 2 1364 1:31:30.4 91:30/K
519 Ruta Fritz Kingwood TX 430 46 2 1365 1:31:30.7 91:31/K
520 Ruby Qattan Crosby TX 1023 34 2 1366 1:31:56.3 91:56/K
521 Donnis Atkins Kingwood TX 45 47 2 1367 1:31:56.9 91:57/K
522 Donna Beckham Kingwood VT 86 63 2 1369 1:32:09.0 92:09/K
523 Susannah Wislar Kingwood TX 1341 16 2 1370 1:32:38.9 92:39/K
524 Jan Wislar Kingwood TX 1339 51 2 1371 1:32:39.9 92:40/K
525 Judith Garcia New Caney TX 447 45 2 1372 1:32:46.2 92:46/K
526 Ally Garcia New Caney TX 443 20 2 1373 1:32:46.2 92:46/K
527 Julianne Kovacik Kingwood TX 674 23 2 1374 1:32:50.8 92:51/K
528 Rita Hansen Kingwood TX 524 60 2 1377 1:32:53.3 92:53/K
529 Maureen Kovacik Kingwood TX 675 52 2 1378 1:32:54.4 92:54/K
530 Heather Madigan Huffman TX 772 50 2 1380 1:33:05.2 93:05/K
531 Erin McMullen Humble TX 855 49 2 1381 1:33:07.9 93:08/K
532 Ciara Madigan Humble TX 771 20 2 1382 1:33:08.6 93:09/K
533 Bayli Erickson Humble TX 383 18 2 1383 1:33:08.9 93:09/K
534 Olivia Fazzino Kingwood TX 1592 17 2 1384 1:33:09.7 93:10/K
535 Kelsey Mathiasen Bates Sabine Pass TX 806 32 2 1387 1:33:13.2 93:13/K
536 Donna Ferguson Cleveland TX 396 41 2 1390 1:33:32.9 93:33/K
537 Renee Smith Spring TX 1149 59 2 1393 1:34:14.5 94:15/K
538 Megan Calongne Kingwood TX 1608 20 2 1397 1:34:28.3 94:28/K
Top

Male Open Winners

Place Name City Bib No Age Div Overall Total Time Pace
1 Unknown Partic. 1696 1696 2 2 3:34.8 3:35/K
2 Jose Antonio Maldonado Porter TX 1613 14 2 3 3:35.1 3:32/K
3 Mike Stock Kingwood TX 1543 49 2 8 3:54.5 3:55/K
Top

Male No Age Provided

Place Name City Bib No Age Div Overall Total Time Pace
1 Unknown Partic. 1736 1736 2 191 8:30.7 8:31/K
2 Unknown Partic. 1746 1746 2 255 10:23.9 10:24/K
3 Unknown Partic. 1744 1744 2 257 10:24.1 10:24/K
4 Unknown Partic. 1745 1745 2 268 11:04.3 11:04/K
5 Unknown Partic. 1735 1735 2 591 59:04.6 59:05/K
6 Unknown Partic. 1734 1734 2 886 1:06:45.5 66:46/K
Top

Male 7 and Under

Place Name City Bib No Age Div Overall Total Time Pace
1 Connor McCarthy Kingwood TX 817 7 2 23 4:46.7 4:47/K
2 Cam McCollough Middletown RI 824 7 2 31 4:56.8 4:57/K
3 Walter Antonio Kingwood TX 31 7 2 41 5:11.2 5:11/K
4 James Apostolakis Kingwood TX 33 7 2 54 5:32.4 5:32/K
5 Jake Davenport Hallettsville TX 1590 7 2 68 5:46.7 5:47/K
6 Mason Reiszner League City TX 1511 6 2 71 5:52.2 5:52/K
7 Liam Fontenot Kingwood TX 422 7 2 73 5:54.3 5:54/K
8 Elijah Garza Humble TX 454 7 2 74 5:55.0 5:55/K
9 Micah Garza Humble TX 455 7 2 79 6:04.2 6:04/K
10 Pauly Fanelli Kingwood TX 386 6 2 94 6:21.0 6:21/K
11 Waylon Gray Midland TX 493 6 2 96 6:23.1 6:23/K
12 Callen Heather Humble TX 539 5 2 100 6:25.2 6:25/K
13 Tate Robinson Humble TX 1056 4 2 109 6:36.6 6:37/K
14 Andrew Antonio Kingwood TX 29 5 2 110 6:36.8 6:37/K
15 Eli Crochet Porter TX 296 6 2 114 6:40.2 6:40/K
16 Ryder Hanna Kingwood TX 519 6 2 120 6:46.4 6:46/K
17 Bennett Gergov Kingwood TX 1582 7 2 121 6:46.5 6:47/K
18 Carter Wright Humble TX 1350 6 2 127 6:53.1 6:53/K
19 Kyle Chavira Kingwood TX 1478 5 2 129 6:55.6 6:56/K
20 Alexander Tello Houston TX 1502 5 2 132 6:59.5 7:00/K
21 Owen Breeding Kingwood TX 141 5 2 142 7:14.8 7:15/K
22 Benjamin Wotkyns Kingwoodkingwood TX 1349 4 2 145 7:19.7 7:20/K
23 Ryland Heather Humble TX 540 7 2 147 7:22.1 7:22/K
24 Benjamin Craig Kingwood TX 292 5 2 148 7:23.9 7:24/K
25 Christopher Craig Kingwood TX 293 4 2 149 7:24.1 7:24/K
26 Rowan McKenzie Kingwood TX 1569 6 2 151 7:25.0 7:25/K
27 Waylon Sosnik Kingwood TX 1171 5 2 153 7:25.2 7:25/K
28 Luke Brawn Houston TX 136 5 2 154 7:31.2 7:31/K
29 Sawyer Rhoades Kingwood TX 1041 7 2 156 7:31.9 7:32/K
30 Theodore Kaciuba Humble TX 634 3 2 168 7:48.9 7:49/K
31 Holden Piercefield Kingwood TX 999 3 2 186 8:28.1 8:28/K
32 Charles Becker Kingwood TX 82 7 2 194 8:36.0 8:36/K
33 Aiden McKee Houston TX 840 5 2 196 8:41.1 8:41/K
34 Ethan Banewski Kingwood TX 62 6 2 198 8:44.0 8:44/K
35 Duke Laskowski Kingwood TX 714 4 2 202 8:55.5 8:56/K
36 Townes Wright Humble TX 1352 4 2 209 9:10.4 9:10/K
37 Emmett Hanna Kingwood TX 518 4 2 210 9:13.0 9:13/K
38 Case Fogleman Kingwood TX 412 7 2 211 9:13.2 9:13/K
39 Crosby Hannon Kingwood TX 522 3 2 228 9:25.1 9:25/K
40 Eddie Austin Humble TX 1450 5 2 230 9:27.0 9:27/K
41 Brooks Johnson Coppell TX 618 6 2 236 9:44.7 9:45/K
42 Ian Gonzalez Porter TX 480 4 2 240 9:48.5 9:49/K
43 Liam Dyer Humble TX 345 6 2 242 9:49.1 9:49/K
44 Tyler Fogleman Kingwood TX 415 2 2 248 10:07.7 10:08/K
45 Keegan McDermott Kingwood TX 831 3 2 263 10:52.4 10:52/K
46 Grayson McDermott Kingwood TX 828 1 2 264 10:52.5 10:53/K
47 Andrew Crochet Porter TX 295 5 2 276 12:43.7 12:44/K
48 David Abbott Broomfield CO 4 2 2 280 14:14.9 14:15/K
49 Richard III Abbott Broomfield CO 6 4 2 285 14:21.7 14:22/K
50 Aiden Wrobel Spring TX 1353 3 2 604 59:29.0 59:29/K
51 Ben Haralson Kingwood TX 529 7 2 772 1:03:35.6 63:36/K
52 Shane Reynolds Porter TX 1038 7 2 926 1:08:32.6 68:33/K
53 Grayson Treadwell Kingwood TX 1251 7 2 1063 1:14:47.0 74:47/K
54 Quinn Williams Kingwood TX 1528 7 2 1084 1:16:30.5 76:31/K
55 Isaac Burlone Webster TX 197 6 2 1124 1:18:59.2 78:59/K
56 Zachary Chapman Kingwood TX 1493 6 2 1142 1:20:25.0 80:25/K
57 Henry Saxon Kingwood TX 1084 3 2 1262 1:25:49.2 85:49/K
58 Aaron Burlone Webster TX 195 4 2 1275 1:27:06.9 87:07/K
59 Grayson Selk Kingwood TX 1589 6 2 1300 1:28:50.7 88:51/K
60 Reid Selk Kingwood TX 1588 3 2 1302 1:28:50.9 88:51/K
61 Owen Gilliam Kingwood TX 475 7 2 1308 1:29:06.5 89:07/K
62 Logan Weeks Troup TX 1300 3 2 1391 1:33:47.4 93:47/K
Top

Male 8 to 14

Place Name City Bib No Age Div Overall Total Time Pace
1 Oliver Stoddart Kingwood TX 1191 12 2 9 3:55.2 3:55/K
2 Dane Solomon Kingwood TX 1167 12 2 11 4:03.2 4:03/K
3 Patrick McCarthy Kingwood TX 820 9 2 12 4:07.6 4:08/K
4 Benjamin Antonio Kingwood TX 30 10 2 13 4:08.2 4:08/K
5 Luke Limbaugh Kingwood TX 747 11 2 16 4:23.1 4:23/K
6 Jensen Greenley Kingwood TX 499 12 2 17 4:23.7 4:24/K
7 Tom Stoddart Kingwood TX 1192 10 2 20 4:37.3 4:37/K
8 Hudson McKee Porter TX 848 9 2 21 4:41.0 4:41/K
9 Brennan Beaty Kingwood TX 80 11 2 24 4:47.2 4:47/K
10 Abram Brown Humble TX 165 9 2 25 4:48.1 4:48/K
11 Max Haltom Humble TX 512 8 2 28 4:52.1 4:52/K
12 Tate Simmons Magnolia TX 1124 10 2 30 4:53.9 4:54/K
13 River Balcom Kingwood TX 1530 10 2 33 4:57.7 4:58/K
14 Casey Foltz Humble TX 416 11 2 34 5:00.5 5:01/K
15 Spencer Baer Kingwood TX 1472 12 2 42 5:11.5 5:12/K
16 Myles Chaney Humble TX 256 10 2 44 5:17.3 5:17/K
17 Michael McCarthy Kingwood TX 819 11 2 45 5:19.7 5:20/K
18 Morgan Lemon Kingwood TX 734 10 2 46 5:20.0 5:20/K
19 Colton Heron Kingwood TX 560 11 2 48 5:23.1 5:23/K
20 Jake Eitreim Kingwood TX 1495 9 2 49 5:23.7 5:24/K
21 Mark Carruth Kingwood TX 1688 9 2 50 5:28.2 5:28/K
22 Jett Chavira Kingwood TX 1477 8 2 53 5:32.1 5:32/K
23 Whitten Gray Midland TX 494 10 2 55 5:32.5 5:33/K
24 Cole Dees Humble TX 309 10 2 56 5:32.7 5:33/K
25 Patrick Giegerich Kingwoodkingwood TX 1452 9 2 58 5:33.3 5:33/K
26 Carter Brookhouser Humble TX 155 10 2 63 5:35.6 5:36/K
27 Stephen Billey Houston TX 105 9 2 64 5:40.4 5:40/K
28 Max McCollough Middletown RI 827 10 2 65 5:43.8 5:44/K
29 Sam Stock Kingwood TX 1729 8 2 67 5:46.5 5:47/K
30 Cole Lozinsky Kingwood TX 763 8 2 69 5:49.9 5:50/K
31 Carson Thibodeaux Humble TX 1223 9 2 78 6:00.2 6:00/K
32 Blake Brooks Kingwood TX 158 8 2 84 6:05.6 6:06/K
33 William Gray Midland TX 495 8 2 98 6:24.8 6:25/K
34 Liam Moore Ignacio CO 906 8 2 103 6:31.6 6:32/K
35 Liam Limbaugh Kingwood TX 746 9 2 104 6:31.7 6:32/K
36 Benjamin Intriago Kingwood TX 1636 10 2 119 6:45.2 6:45/K
37 Mitchell Johnson Coppell TX 626 9 2 124 6:50.9 6:51/K
38 Wylan Stewart Kingwood TX 1188 8 2 128 6:55.0 6:55/K
39 Tyson Hanna Kingwood TX 520 9 2 146 7:20.7 7:21/K
40 Carson Gaskamp Kingwood TX 458 9 2 161 7:37.3 7:37/K
41 Levi Hoyt Porter TX 586 10 2 170 7:56.8 7:57/K
42 Diego Alvarado Kingwood TX 20 8 2 180 8:16.8 8:17/K
43 Paul McLaughlin Kingwood TX 854 9 2 190 8:30.3 8:30/K
44 Beckett Smith Kingwood TX 1139 12 2 192 8:32.4 8:32/K
45 Colton Patterson Kingwood TX 977 8 2 197 8:42.2 8:42/K
46 Beckett Smith Kingwood TX 1138 12 2 199 8:44.9 8:45/K
47 Ryan Jasinski Kingwood TX 1433 13 2 200 8:51.1 8:51/K
48 James Maxwell Kingwood TX 814 10 2 216 9:17.4 9:17/K
49 Cameron Gaskamp Kingwood TX 457 9 2 218 9:19.6 9:20/K
50 Van Christman Kingwood TX 265 13 2 237 9:45.1 9:45/K
51 Logan Dyer Humble TX 346 11 2 238 9:45.3 9:45/K
52 Steven Mein Kingwood TX 868 10 2 277 12:58.2 12:58/K
53 Owen Brawn Houston TX 137 10 2 281 14:17.5 14:18/K
54 Caleb Brawn Houston TX 135 8 2 286 14:34.5 14:35/K
55 Owen Cole Kingwood TX 275 14 2 300 46:28.5 46:29/K
56 Daneil Haltom Humble TX 511 14 2 305 48:24.1 48:24/K
57 Trevor Ehrlicher Humble TX 1547 14 2 307 48:30.6 48:31/K
58 Jack Stanton Kingwood TX 1179 14 2 310 48:35.0 48:35/K
59 Logan Beach Kingwood TX 78 14 2 320 49:35.2 49:35/K
60 Nathan Cole Kingwood TX 274 11 2 330 50:21.2 50:21/K
61 David Carruth Kingwood TX 1690 13 2 334 50:30.1 50:30/K
62 Ryan Rodger Humble TX 1059 14 2 335 50:48.1 50:48/K
63 Andrew Donahue Humble TX 1583 12 2 342 51:11.7 51:12/K
64 Wilson Leslie Kingwood TX 740 14 2 352 51:54.0 51:54/K
65 Charles Johnson Georgetown TX 620 14 2 360 52:16.4 52:16/K
66 Tommy Avery Kingwood TX 1483 13 2 361 52:19.8 52:20/K
67 Aidan Walsh Kingwood TX 1500 13 2 364 52:22.0 52:22/K
68 Cameron Barker Kingwood TX 65 13 2 372 52:55.3 52:55/K
69 Sebastian Cash Kingwood TX 242 13 2 375 53:06.0 53:06/K
70 Brady Witmer Humble TX 1342 13 2 376 53:09.7 53:10/K
71 Lane Limbaugh Kingwood TX 745 12 2 388 53:36.2 53:36/K
72 Ellis Penate Kingwood TX 988 13 2 391 53:43.0 53:43/K
73 Logan Ware Kingwood TX 1292 14 2 399 53:58.1 53:58/K
74 Luke Medlock Kingwood TX 862 10 2 403 54:14.2 54:14/K
75 Max Camin Kingwood TX 215 14 2 410 54:28.0 54:28/K
76 Peyton Johnston Kingwood TX 630 13 2 434 55:22.6 55:23/K
77 Sullivan Witmer Humble TX 1344 9 2 446 55:41.9 55:42/K
78 Zachary Baker Dallas TX 61 12 2 450 55:48.9 55:49/K
79 Jet Long Houston TX 757 14 2 452 55:56.2 55:56/K
80 Nathan Pearce Kingwood TX 986 13 2 455 56:00.7 56:01/K
81 William Cash Kingwood TX 244 13 2 467 56:16.2 56:16/K
82 Tyler Patterson Kingwood TX 979 13 2 474 56:21.3 56:21/K
83 Jace Johnston Kingwood TX 627 11 2 479 56:28.8 56:29/K
84 Van Cradic Kingwood TX 1604 11 2 491 56:58.0 56:58/K
85 Alexander Labbe Kingwood TX 690 13 2 499 57:05.8 57:06/K
86 Oliver Ware Kingwood TX 1293 12 2 500 57:07.2 57:07/K
87 Bryce Hunnicutt Humble TX 594 10 2 512 57:25.4 57:25/K
88 Jimmy Cook Olathe KS 286 12 2 527 57:44.6 57:45/K
89 Tatum Szabo Humble TX 1627 12 2 529 57:46.6 57:47/K
90 Luke Olesen Kingwood TX 1426 11 2 538 57:55.3 57:55/K
91 Alexander Fullerton Kingwood TX 431 14 2 565 58:21.9 58:22/K
92 Matthew Verret Kingwood TX 1274 12 2 577 58:34.7 58:35/K
93 Erick Putnam Kingwood TX 1554 14 2 598 59:19.9 59:20/K
94 Zac Spear Kingwood TX 1558 10 2 606 59:31.9 59:32/K
95 Hudson Leslie Kingwood TX 737 12 2 607 59:32.8 59:33/K
96 Tommy Jacobson Allen TX 605 12 2 619 59:44.1 59:44/K
97 Charlie Cook Olathe KS 282 9 2 629 59:54.5 59:55/K
98 Ryder Grabner Kingwood TX 487 12 2 634 1:00:05.2 60:05/K
99 Jacob Verret Kingwood TX 1272 14 2 638 1:00:11.3 60:11/K
100 Nate Trenary College Station TX 1443 11 2 640 1:00:12.4 60:12/K
101 Glenn Lemon Kingwood TX 733 12 2 680 1:01:03.4 61:03/K
102 Maverick Bjornstad Kingwood TX 113 12 2 686 1:01:10.2 61:10/K
103 Cale Witmer Humble TX 1343 12 2 687 1:01:10.8 61:11/K
104 Colt Igoe Humble TX 597 8 2 703 1:01:42.1 61:42/K
105 Wells Kenny Kingwood TX 658 13 2 706 1:01:45.7 61:46/K
106 Jaylen Medina Kingwood TX 856 9 2 730 1:02:14.1 62:14/K
107 Holt Simmons Magnoliama TX 1115 13 2 734 1:02:22.4 62:22/K
108 Nicholas Mendoza Kingwood TX 878 9 2 738 1:02:32.4 62:32/K
109 Cade Guzzo Kingwood TX 1649 9 2 741 1:02:39.2 62:39/K
110 Dylan O'Reilly Humble TX 947 10 2 744 1:02:41.6 62:42/K
111 Ian Burke Kingwood TX 189 14 2 747 1:02:48.1 62:48/K
112 Cade Ellis Kingwood TX 376 12 2 750 1:02:53.2 62:53/K
113 Madan Barbee Humble TX 64 12 2 758 1:03:08.6 63:09/K
114 Hudson Hartfiel Kingwood TX 537 12 2 768 1:03:26.9 63:27/K
115 Owen Pearce Kingwood TX 1565 11 2 784 1:03:58.8 63:59/K
116 Noah Menchaca Austin TX 874 10 2 785 1:03:59.4 63:59/K
117 Noah Knepper Kingwood TX 671 11 2 819 1:04:48.6 64:49/K
118 Jack Grabner Kingwood TX 484 14 2 826 1:05:04.6 65:05/K
119 Nicholas Baker Humble TX 58 13 2 833 1:05:18.0 65:18/K
120 Andrew Olesen Kingwood TX 1427 9 2 834 1:05:19.9 65:20/K
121 Teddy Fontenot Kingwood TX 424 9 2 854 1:05:45.9 65:46/K
122 Colson Ferdows Kingwood TX 391 10 2 858 1:06:04.7 66:05/K
123 Bryce Bullman Kingwood TX 185 10 2 865 1:06:17.2 66:17/K
124 Baylor Chapman Denver TX 1492 8 2 868 1:06:19.1 66:19/K
125 Ethan Bullman Kingwood TX 186 8 2 869 1:06:19.2 66:19/K
126 Teddy Labbe Kingwood TX 695 9 2 894 1:07:13.7 67:14/K
127 Will Moffett Kingwood TX 1418 10 2 898 1:07:22.2 67:22/K
128 Max Duncan Kingwood TX 333 9 2 899 1:07:22.3 67:22/K
129 Jacob Reneau Kingwood TX 1034 13 2 906 1:07:27.9 67:28/K
130 David Lee Kingwood TX 725 13 2 958 1:09:24.4 69:24/K
131 Ayden Wilson Conroe TX 1332 10 2 997 1:10:48.5 70:49/K
132 Cash Keating Humble TX 640 13 2 1002 1:11:04.6 71:05/K
133 Jack Fogleman Kingwood TX 413 10 2 1005 1:11:13.8 71:14/K
134 Micah Grier Houston TX 1406 10 2 1021 1:11:58.8 71:59/K
135 Will Weller Kingwood TX 1306 12 2 1035 1:13:12.6 73:13/K
136 Anders Greenley Kingwood TX 497 13 2 1036 1:13:16.4 73:16/K
137 Brayden Ferdows Kingwood TX 390 12 2 1042 1:13:38.4 73:38/K
138 Sedrick Labome, II Kingwood TX 697 11 2 1059 1:14:34.1 74:34/K
139 Benjamin Garcia Kingwood TX 444 11 2 1065 1:15:05.2 75:05/K
140 Nathaniel Burke Kingwood TX 192 13 2 1075 1:16:04.4 76:04/K
141 Eduardo Madrid Kingwood TX 774 9 2 1104 1:17:14.2 77:14/K
142 Dylan Williams Kingwood TX 1527 11 2 1108 1:17:32.2 77:32/K
143 Aidan Britton Kingwood TX 151 12 2 1112 1:17:39.9 77:40/K
144 Connor Simmons Houston TX 1111 8 2 1115 1:18:01.0 78:01/K
145 Cooper Simmons Houston TX 1112 9 2 1125 1:19:10.7 79:11/K
146 Anthony Miller Houston UT 893 14 2 1132 1:19:41.1 79:41/K
147 Lucas Blado Kingwood TX 116 14 2 1245 1:24:58.0 84:58/K
148 Nicholas Ferdows Kingwood TX 393 14 2 1255 1:25:15.4 85:15/K
149 Will Simpson Kingwood TX 1128 11 2 1304 1:28:55.9 88:56/K
150 Colt Wiedermann Kingwood TX 1318 10 2 1349 1:30:34.8 90:35/K
Top

Male 15 and Over

Place Name City Bib No Age Div Overall Total Time Pace
1 Adan Turrubiartes Humble TX 1634 17 2 18 4:29.3 4:29/K
2 Cameron Hayes Kingwood TX 1566 36 2 60 5:33.4 5:33/K
3 John Wakefield Kingwood TX 1285 40 2 95 6:21.4 6:21/K
4 Daniel Brooks Kingwood TX 159 41 2 111 6:37.2 6:37/K
5 Ross Biesemeyer Kingwood TX 1387 35 2 113 6:39.6 6:40/K
6 Andy Ebersbaker Kingwood TX 362 43 2 123 6:50.5 6:51/K
7 Max Mejia Humble TX 870 41 2 158 7:33.4 7:33/K
8 Clay Gaskamp Kingwood TX 459 40 2 162 7:37.6 7:38/K
9 Kyle Piercefield Kingwood TX 1000 31 2 167 7:44.1 7:44/K
10 Pete Brawn Houston TX 138 41 2 171 8:02.6 8:03/K
11 Clayton Smith Kingwood TX 1137 43 2 177 8:09.2 8:09/K
12 Elliott Pearce Kingwood TX 982 35 2 189 8:30.1 8:30/K
13 Jess Davenport Hallettsville TX 1648 41 2 193 8:32.5 8:33/K
14 Joey Jasinski Kingwood TX 1431 44 2 201 8:51.3 8:51/K
15 Scott Banewski Kingwood TX 1699 45 2 207 9:02.9 9:03/K
16 Phillip Pagel Porter TX 963 37 2 217 9:18.5 9:19/K
17 James Barton Spring TX 1438 34 2 224 9:21.7 9:22/K
18 Ryan Austin Kingwood TX 1449 36 2 229 9:25.2 9:25/K
19 Matthew McKenzie Kingwood TX 1570 36 2 244 9:53.7 9:54/K
20 Jonathan Fogleman Kingwood TX 414 35 2 247 10:06.5 10:07/K
21 Brandon Hanna Kingwood TX 517 40 2 262 10:50.3 10:50/K
22 Joey McDermott Kingwood TX 830 35 2 266 10:53.2 10:53/K
23 Hayden Robison Kingwood TX 1497 27 2 275 12:25.1 12:25/K
24 Nathan Mein Kingwood TX 866 36 2 278 13:02.1 13:02/K
25 Richard Jr Abbott Broomfield CO 7 33 2 283 14:20.8 14:21/K
26 Joel Keifer Kingwood TX 646 34 2 290 40:05.2 40:05/K
27 Joel Stubblefield Kingwood TX 1199 36 2 292 40:07.5 40:08/K
28 Ryan Grandy Kingwood TX 490 31 2 294 40:12.6 40:13/K
29 Alan Keifer Kingwood TX 644 64 2 296 40:13.8 40:14/K
30 Evan Jones Minneapolis MN 632 24 2 298 46:13.6 46:14/K
31 Antony Keller Houston TX 654 32 2 299 46:21.8 46:22/K
32 Trent Boyd Kingwood TX 1396 29 2 301 47:24.4 47:24/K
33 Jackson Snowden Kingwood TX 1161 15 2 302 48:11.1 48:11/K
34 Luke Camin Kingwood TX 214 17 2 303 48:12.0 48:12/K
35 Alec Yale Charlotte NC 1358 28 2 304 48:16.2 48:16/K
36 Barrett Kenny Kingwood TX 10 16 2 306 48:24.8 48:25/K
37 Justin Wimpee Humble TX 1440 33 2 308 48:31.8 48:32/K
38 Christian Rincones Kingwood TX 1629 16 2 309 48:34.2 48:34/K
39 Corey Foltz Humble TX 417 15 2 311 48:35.7 48:36/K
40 Gerardo Solorzano Humble TX 1168 21 2 314 49:07.3 49:07/K
41 Stephan Keller Houston TX 656 29 2 316 49:22.4 49:22/K
42 Mario Foltz Humble TX 419 20 2 318 49:29.9 49:30/K
43 Manfred Roenz Humble TX 1061 50 2 319 49:34.2 49:34/K
44 Michael Wissing Kingwood TX 1539 34 2 321 49:35.5 49:36/K
45 Rafael Romero Humble TX 1536 35 2 324 49:49.6 49:50/K
46 Ben Vogel Kingwood TX 1489 20 2 325 49:54.3 49:54/K
47 Tim Heitzwebel Kingwood TX 1537 61 2 326 49:59.8 50:00/K
48 Evan Janacek Kingwood TX 608 16 2 327 50:07.7 50:08/K
49 Benjamin Piņa Kingwood TX 1001 16 2 328 50:16.3 50:16/K
50 Michael Wrobel Spring TX 1356 31 2 329 50:20.7 50:21/K
51 Jason Grier Houston TX 1405 42 2 331 50:22.1 50:22/K
52 Matthew Manwaring Porter TX 784 32 2 332 50:22.4 50:22/K
53 Ryan Sievers Richwood TX 1109 24 2 333 50:30.1 50:30/K
54 Ross Calcote Kingwood TX 210 16 2 336 50:48.4 50:48/K
55 Benjie Go Conroe TX 477 40 2 337 50:48.7 50:49/K
56 Michael Robinson Humble TX 1055 39 2 339 50:59.3 50:59/K
57 Mccoy Wislar Kingwood TX 1340 21 2 340 51:00.1 51:00/K
58 Adam Thorn Kingwood TX 1233 46 2 341 51:06.2 51:06/K
59 Aaron Tackett Kingwood TX 1216 47 2 344 51:18.9 51:19/K
60 Phillip Newman Kingwood TX 934 40 2 345 51:20.3 51:20/K
61 Alexander Varela Kingwood TX 1262 17 2 347 51:35.1 51:35/K
62 Adam Shepherd Humble TX 1103 42 2 348 51:41.7 51:42/K
63 Michael Monk Kingwood TX 901 21 2 350 51:48.4 51:48/K
64 Rick Gardner Porter TX 1393 56 2 351 51:51.0 51:51/K
65 Steve Jay Kingwood TX 613 50 2 355 52:06.4 52:06/K
66 Jason Labani Humble TX 686 43 2 357 52:13.5 52:14/K
67 Andrew Kretzschmar New Caney TX 680 43 2 358 52:14.5 52:15/K
68 Eric Parsons Humble TX 973 49 2 362 52:19.8 52:20/K
69 Brandon Cambio Houston TX 212 23 2 363 52:21.0 52:21/K
70 Colby Astor Humble TX 42 18 2 365 52:26.1 52:26/K
71 Roger Brown Kingwood TX 174 58 2 366 52:26.9 52:27/K
72 Tom Valente Morton Grove IL 1258 26 2 367 52:29.0 52:29/K
73 Christopher Martin Houston TX 796 39 2 368 52:29.2 52:29/K
74 Tristan Graff Kingwood TX 1399 19 2 369 52:35.3 52:35/K
75 Michael Harris Cedar Park TX 535 24 2 370 52:50.4 52:50/K
76 Tyler Roenz Humble TX 1063 15 2 371 52:52.5 52:53/K
77 Carey Kesner Humble TX 659 36 2 373 53:00.2 53:00/K
78 Bryan Williams Humble TX 1321 39 2 374 53:04.4 53:04/K
79 Ricky Cronin Dallas TX 1395 37 2 377 53:10.9 53:11/K
80 Steven Baker Humble TX 59 46 2 378 53:15.1 53:15/K
81 Andres Ortiz Conroe TX 959 20 2 380 53:24.2 53:24/K
82 Nick Pernik Kingwood TX 992 24 2 381 53:24.6 53:25/K
83 Connor Richmond Kingwood TX 1402 19 2 382 53:26.5 53:27/K
84 Holden Cook Olathe KS 284 15 2 385 53:31.7 53:32/K
85 Kyle Bell Humble TX 89 25 2 386 53:35.2 53:35/K
86 Alasdair Stoddart Kingwood TX 1189 41 2 387 53:35.4 53:35/K
87 Craig Moore Humble TX 1459 49 2 389 53:39.6 53:40/K
88 Samuel Baer Kingwood TX 1470 16 2 390 53:41.5 53:42/K
89 Chris Verret Kingwood TX 1271 42 2 393 53:48.9 53:49/K
90 Jack Giegerich Kingwood TX 1451 34 2 394 53:49.1 53:49/K
91 Nathan Neely Humble TX 933 41 2 396 53:51.1 53:51/K
92 Asher Thorn Kingwood TX 1234 18 2 397 53:53.4 53:53/K
93 James Giordano Humble TX 1503 56 2 398 53:56.9 53:57/K
94 Brett Sneed Kingwood TX 1153 27 2 400 54:01.4 54:01/K
95 Mark Dykstra Kingwood TX 348 54 2 401 54:04.8 54:05/K
96 Gene Medlock Kingwood TX 861 45 2 402 54:12.7 54:13/K
97 Kade Simmons Magnoliama TX 1117 37 2 404 54:17.5 54:18/K
98 Trinidad Ojeda Humble TX 953 17 2 406 54:19.1 54:19/K
99 Jacob Roberts Humble TX 1049 15 2 407 54:20.5 54:21/K
100 Lee Lewis Kingwood TX 743 50 2 408 54:21.0 54:21/K
101 Brad Parsons Kingwood TX 971 41 2 411 54:28.4 54:28/K
102 Rc Lowe Kingwood TX 1362 45 2 412 54:30.9 54:31/K
103 Wilfredo Penate Kingwood TX 990 42 2 413 54:32.8 54:33/K
104 Brian Wrobel Houston TX 1355 25 2 415 54:36.0 54:36/K
105 Clint Lozinsky Kingwood TX 762 39 2 416 54:36.8 54:37/K
106 Timothy Lofton Humble TX 754 53 2 419 54:42.7 54:43/K
107 Glenn Hitchcock Kingwood TX 579 50 2 420 54:43.5 54:44/K
108 Colby Mattson Humble TX 809 17 2 421 54:45.0 54:45/K
109 Carlos Ottati Port Arthur TX 1544 45 2 422 54:47.3 54:47/K
110 Scott Cook Olathe KS 288 48 2 424 54:50.6 54:51/K
111 Will Lowe Kingwood TX 1360 15 2 428 55:01.6 55:02/K
112 Sean Magda Humble TX 775 22 2 430 55:14.2 55:14/K
113 Bryan Stringham Broomfield CO 1197 47 2 432 55:19.9 55:20/K
114 Brett Willms Kingwood TX 1324 25 2 433 55:20.8 55:21/K
115 Jack Hillier Kingwood TX 573 18 2 435 55:23.4 55:23/K
116 Nathan Leslie Kingwood TX 739 42 2 436 55:27.6 55:28/K
117 Cody Bruns Porter TX 1538 27 2 437 55:29.8 55:30/K
118 Mark Pernik Kingwood TX 991 53 2 438 55:31.3 55:31/K
119 James Sledge Kingwood TX 1131 16 2 440 55:32.7 55:33/K
120 Jeff Finley Dallas TX 400 43 2 444 55:40.6 55:41/K
121 Maximiliano Ramirez Pflugerville TX 1610 30 2 445 55:41.8 55:42/K
122 Jared Wentzel Kingwood TX 1307 30 2 447 55:44.0 55:44/K
123 Matt Brown Houston TX 170 49 2 448 55:45.6 55:46/K
124 Preston Calcote Kingwood TX 208 52 2 451 55:54.2 55:54/K
125 Sam Wheatley Kingwood TX 1316 23 2 453 56:00.1 56:00/K
126 Chuck Sledge Kingwood TX 1129 54 2 459 56:03.5 56:04/K
127 Randy Thibodeaux Humble TX 1225 37 2 460 56:05.2 56:05/K
128 Alex Huddleston Spring TX 587 27 2 461 56:06.3 56:06/K
129 Roger Chavira Kingwood TX 1479 42 2 462 56:07.3 56:07/K
130 Ryan Calcote Kingwood TX 211 21 2 465 56:13.7 56:14/K
131 Stephen Giacobbe Kingwood TX 470 24 2 466 56:16.1 56:16/K
132 Joshua Baer Kingwood TX 1469 18 2 472 56:20.2 56:20/K
133 Diego Villafani Humble TX 1275 24 2 473 56:20.9 56:21/K
134 Luke Tiedtke Kingwood TX 1238 18 2 475 56:26.1 56:26/K
135 John Long Kingwood TX 758 52 2 477 56:27.0 56:27/K
136 Joe Chaney Humble TX 254 39 2 480 56:30.2 56:30/K
137 Chase Tiedtke Kingwood TX 1236 20 2 481 56:32.3 56:32/K
138 Christian Khonline Humble TX 660 23 2 482 56:33.3 56:33/K
139 Jim Clinebell Humble TX 272 55 2 483 56:40.6 56:41/K
140 Tevin Svihovec Kingwood TX 1461 28 2 485 56:42.1 56:42/K
141 David Alvarado Kingwood TX 19 42 2 486 56:46.1 56:46/K
142 Vince Wesolowski Humble TX 1312 49 2 487 56:49.1 56:49/K
143 Alex Pearce Kingwood TX 980 44 2 489 56:51.5 56:52/K
144 Logan Cradic Kingwood TX 1606 25 2 492 56:58.8 56:59/K
145 Micah Dees Humble TX 310 16 2 494 57:00.9 57:01/K
146 Andrew Baker Dallas TX 54 40 2 497 57:03.9 57:04/K
147 Ryan Dowden Kingwood TX 332 26 2 501 57:08.5 57:09/K
148 Toby Ware Kingwood TX 1294 44 2 503 57:11.5 57:12/K
149 Cory Burton Kingwood TX 201 45 2 504 57:11.8 57:12/K
150 Robert Wittenbrink Kingwood TX 1346 56 2 505 57:12.3 57:12/K
151 Evan Lee Kingwood TX 727 15 2 508 57:15.2 57:15/K
152 Robert Apostolakis Kingwood TX 34 48 2 510 57:20.4 57:20/K
153 Michael Olesen Kingwood TX 1425 38 2 511 57:23.3 57:23/K
154 Liet Le Houston TX 720 39 2 513 57:26.9 57:27/K
155 Joshua Pelfrey Kingwood TX 1420 15 2 515 57:29.0 57:29/K
156 Jonathan Siebert Kingwood TX 1108 22 2 516 57:29.4 57:29/K
157 Joe Jacobson Allen TX 603 45 2 518 57:30.7 57:31/K
158 Eric Clinebell Austin TX 271 25 2 519 57:30.8 57:31/K
159 Tyler Astor Humble TX 44 23 2 521 57:31.8 57:32/K
160 Michael Snowden Kingwood TX 1162 45 2 523 57:36.0 57:36/K
161 Nolan Nix Porter TX 1410 31 2 530 57:47.8 57:48/K
162 Rob Hain Kingwood TX 509 64 2 534 57:52.2 57:52/K
163 Carl Qualls II Porter TX 1025 56 2 536 57:54.2 57:54/K
164 Michael Leach Conroe TX 722 44 2 537 57:54.8 57:55/K
165 Jason Sanders Houston TX 1383 44 2 540 57:57.4 57:57/K
166 Jason Novak Humble TX 940 30 2 543 57:59.1 57:59/K
167 Clayton Maple Kingwood TX 787 45 2 547 58:06.2 58:06/K
168 Travis Finley Dallas TX 402 15 2 548 58:07.0 58:07/K
169 Ian Thorn Kingwood TX 1235 16 2 552 58:12.7 58:13/K
170 Ted Imperato Kingwood TX 1637 49 2 555 58:13.3 58:13/K
171 Oscar M. Galvan Jr. Humble TX 441 27 2 560 58:16.9 58:17/K
172 Doug Smith Kingwood TX 1140 56 2 561 58:17.0 58:17/K
173 Kylie McCollough Middletown RI 826 40 2 562 58:18.2 58:18/K
174 Jose Pina Kingwood TX 1003 59 2 568 58:24.4 58:24/K
175 John Vasquez Kingwood TX 1548 50 2 569 58:25.8 58:26/K
176 James Brooks New Caney TX 160 24 2 571 58:26.8 58:27/K
177 Zachary Ankrom Temple TX 28 31 2 574 58:32.1 58:32/K
178 Samuel Scontrino Garland TX 1574 19 2 576 58:33.6 58:34/K
179 David Laplante Kingwood TX 710 58 2 579 58:44.9 58:45/K
180 Jonathan Brooks Houston TX 161 39 2 580 58:45.0 58:45/K
181 Don Putnam Kingwood TX 1551 43 2 581 58:50.1 58:50/K
182 Shawn Morrow Kingwood TX 921 47 2 584 58:52.5 58:53/K
183 Alec Hillier Kingwood TX 566 16 2 585 58:54.2 58:54/K
184 Brian Dusablon Kingwood TX 340 40 2 590 59:04.2 59:04/K
185 Shawn Farrell Kingwood TX 389 20 2 592 59:05.2 59:05/K
186 Blake Hillier Kingwood TX 569 23 2 594 59:09.7 59:10/K
187 Grant Manning Kingwood TX 781 34 2 597 59:16.2 59:16/K
188 Robert Mendoza Kingwood TX 879 47 2 600 59:21.9 59:22/K
189 John Rhoades Kingwood TX 1040 51 2 601 59:22.1 59:22/K
190 Britton Carter Humble TX 231 22 2 602 59:22.3 59:22/K
191 Jason Moreno Kingwood TX 911 36 2 603 59:26.5 59:27/K
192 Clyde Lambert Humble TX 707 65 2 608 59:34.2 59:34/K
193 Dillon Seibert Humble TX 1571 27 2 611 59:36.3 59:36/K
194 Jeff Baer Kingwood TX 1468 43 2 612 59:37.2 59:37/K
195 David Carter Humble TX 233 52 2 620 59:45.7 59:46/K
196 Chris O'Brien Kingwood TX 942 43 2 622 59:46.7 59:47/K
197 Gary Eakin Kingwoodkingwood TX 357 30 2 623 59:47.0 59:47/K
198 Saul Gonzalez Porter TX 481 32 2 625 59:49.2 59:49/K
199 Kyle Bailey Kingwood TX 52 27 2 626 59:50.2 59:50/K
200 Steven Rodger Humble TX 1060 55 2 630 59:56.6 59:57/K
201 Brett Astor Humble TX 41 45 2 631 59:56.7 59:57/K
202 Cristian Galvan Humble TX 439 22 2 632 59:57.5 59:58/K
203 Richard Finley Humble TX 401 68 2 635 1:00:05.5 60:06/K
204 Cameron Bjornstad Kingwood TX 111 15 2 636 1:00:07.4 60:07/K
205 Chris Sasso Kingwood TX 1080 54 2 637 1:00:10.9 60:11/K
206 Brandon Beach Kingwood TX 77 47 2 641 1:00:15.7 60:16/K
207 Bryce Harrington Porter TX 533 22 2 647 1:00:25.9 60:26/K
208 Kade Harrington Porter TX 534 25 2 648 1:00:26.4 60:26/K
209 Micah Snell Humble TX 1157 20 2 650 1:00:35.0 60:35/K
210 Blake Stringer Kingwood TX 1196 23 2 652 1:00:36.2 60:36/K
211 Kirk Vaughn Crosby TX 1264 40 2 654 1:00:38.6 60:39/K
212 Brett Grabner Kingwoodkingwood TX 483 48 2 655 1:00:40.2 60:40/K
213 Anthony Scafuri Humble TX 1087 50 2 658 1:00:41.1 60:41/K
214 Nicholas Scafuri Humble TX 1090 16 2 659 1:00:41.5 60:42/K
215 Albert Estrada Humble TX 1579 34 2 661 1:00:43.5 60:44/K
216 Shawn Warnke Humble TX 1296 33 2 662 1:00:43.6 60:44/K
217 Ricky Rojas Humble TX 1065 20 2 665 1:00:46.3 60:46/K
218 Lorenzo Romero Humble TX 1066 56 2 666 1:00:47.1 60:47/K
219 Adam Wambaugh Kingwood TX 1391 25 2 668 1:00:48.6 60:49/K
220 Zachary Gibson Bryan TX 473 31 2 671 1:00:57.5 60:58/K
221 Tristen Svihovec Kingwood TX 1462 23 2 675 1:00:59.6 61:00/K
222 Todd Svihovec Kingwood TX 1460 55 2 676 1:01:00.5 61:01/K
223 Jay Gaur Kingwood TX 461 46 2 677 1:01:02.1 61:02/K
224 Lawton Gaur Kingwood TX 464 17 2 679 1:01:03.3 61:03/K
225 Feliciano Garcia New Caney TX 445 46 2 681 1:01:04.3 61:04/K
226 Mike Johnston Kingwood TX 629 41 2 683 1:01:09.1 61:09/K
227 Jacob Avery Kingwood TX 1481 44 2 684 1:01:09.4 61:09/K
228 John Bjornstad Kingwood TX 112 40 2 685 1:01:10.1 61:10/K
229 Lee Topham Porter TX 1249 78 2 688 1:01:11.8 61:12/K
230 Cody Gibson Kingwood TX 471 28 2 690 1:01:13.5 61:14/K
231 Javier Garcia Kingwood TX 446 42 2 691 1:01:17.6 61:18/K
232 Christopher Morton Porter TX 923 28 2 697 1:01:28.3 61:28/K
233 Jason Bullman Kingwood TX 187 43 2 698 1:01:30.4 61:30/K
234 Drew Heron Kingwood TX 561 40 2 699 1:01:31.1 61:31/K
235 Andrew Durkee Kingwood TX 335 17 2 701 1:01:38.8 61:39/K
236 Elyud Elias Humble TX 371 39 2 702 1:01:40.5 61:41/K
237 Hunter Carson Kingwood TX 230 43 2 705 1:01:44.7 61:45/K
238 Todd Limbaugh Kingwood TX 749 46 2 708 1:01:51.0 61:51/K
239 Joseph Armel Kingwood TX 38 57 2 710 1:01:51.6 61:52/K
240 Jimmy Martin Kingwood TX 797 29 2 715 1:01:55.6 61:56/K
241 Matthew Moran Humble TX 910 35 2 717 1:01:59.1 61:59/K
242 Rob Ferdows Kingwood TX 394 49 2 718 1:01:59.3 61:59/K
243 James Durkee Kingwood TX 337 52 2 722 1:02:05.3 62:05/K
244 Jon Hillier Kingwood TX 576 21 2 737 1:02:31.0 62:31/K
245 Rigo Contreras Humble TX 279 49 2 745 1:02:41.9 62:42/K
246 Guy Braden Kingwood TX 127 53 2 746 1:02:48.1 62:48/K
247 Randy Burleigh Humble TX 194 58 2 748 1:02:48.3 62:48/K
248 Johnathan Cochran Kingwood TX 1435 22 2 752 1:02:53.9 62:54/K
249 Matt Sanders Kingwood TX 1079 33 2 756 1:02:59.7 63:00/K
250 Conor Swanson Kingwood TX 1207 42 2 759 1:03:09.7 63:10/K
251 Shawn Oliver Kingwood TX 957 58 2 761 1:03:14.2 63:14/K
252 Sam Dykstra Kingwood TX 349 16 2 769 1:03:30.9 63:31/K
253 John Haralson Kingwood TX 531 42 2 777 1:03:43.8 63:44/K
254 Jackie Christian Kingwood TX 261 27 2 778 1:03:45.5 63:46/K
255 Brennan Oliver Conroe TX 954 31 2 780 1:03:55.5 63:56/K
256 David Stolarz Kingwood TX 1193 23 2 787 1:04:00.7 64:01/K
257 Elliot Lye Kingwood TX 768 30 2 788 1:04:01.4 64:01/K
258 John Hanley Kingwood TX 1476 35 2 790 1:04:02.4 64:02/K
259 David Nappier Huffman TX 929 56 2 792 1:04:06.3 64:06/K
260 Jay Muscat Porter TX 1494 56 2 793 1:04:06.6 64:07/K
261 Mark Piatti Kingwood TX 997 36 2 795 1:04:20.4 64:20/K
262 Justin Becker Kingwood TX 84 39 2 798 1:04:23.3 64:23/K
263 Shaun Simmons Houston TX 1123 40 2 802 1:04:31.9 64:32/K
264 Craig Taylor Magnolia TX 1364 44 2 803 1:04:32.1 64:32/K
265 D. Scott Hutchings Kingwood TX 1377 33 2 804 1:04:33.7 64:34/K
266 Frank Robertson Kingwood TX 1051 46 2 809 1:04:39.3 64:39/K
267 Richard Barker Kingwood TX 1370 47 2 810 1:04:41.8 64:42/K
268 Allan Daniels Kingwood TX 300 51 2 813 1:04:43.6 64:44/K
269 Dennis Olesen Kingwood TX 1439 70 2 815 1:04:45.1 64:45/K
270 Robert Fullerton Shreveport LA 433 32 2 816 1:04:45.9 64:46/K
271 Brian Gray Midland TX 491 40 2 817 1:04:47.2 64:47/K
272 Stan Hollibaugh Kingwood TX 584 55 2 825 1:05:00.7 65:01/K
273 Harrison Post Fort Worth TX 1010 24 2 830 1:05:14.5 65:15/K
274 Trevis Allen Fort Worth TX 1631 30 2 843 1:05:38.1 65:38/K
275 Seth Tobey Kingwood TX 1248 46 2 844 1:05:39.1 65:39/K
276 Spike Matre Conroe TX 807 38 2 847 1:05:40.4 65:40/K
277 Dan Jaeger Humble TX 606 75 2 853 1:05:45.5 65:46/K
278 Rob Lee Kingwood TX 730 59 2 859 1:06:04.9 66:05/K
279 Matthew Naber Kingwood TX 1612 34 2 863 1:06:15.9 66:16/K
280 Mitchel Matheny Porter TX 802 22 2 864 1:06:16.0 66:16/K
281 Kyle Steingreaber Kingwood TX 1185 26 2 866 1:06:18.6 66:19/K
282 Jarrod Chapman Kingwood TX 1490 42 2 870 1:06:19.8 66:20/K
283 Jeff Thorpe Cypress TX 1488 60 2 879 1:06:33.1 66:33/K
284 Cole Williamson Kingwood TX 1322 19 2 880 1:06:34.7 66:35/K
285 Paul Yale Kingwood TX 1359 67 2 882 1:06:38.3 66:38/K
286 Kevin Geiger New Caney TX 467 57 2 885 1:06:42.4 66:42/K
287 Kirk Boyd Midland TX 1457 69 2 889 1:07:01.8 67:02/K
288 Brian Kroeger Kingwood TX 683 43 2 892 1:07:10.9 67:11/K
289 Mark Prahl Little Elm TX 1012 55 2 897 1:07:20.5 67:21/K
290 Duncan Rhodes Kingwood TX 1043 55 2 902 1:07:25.3 67:25/K
291 Mike Labbe Kingwood TX 693 41 2 903 1:07:25.3 67:25/K
292 John Ebert Kingwood TX 368 51 2 907 1:07:34.7 67:35/K
293 Greg Dillard Kingwood TX 318 44 2 909 1:07:49.5 67:50/K
294 Neal Laskowski Kingwood TX 717 35 2 913 1:08:01.2 68:01/K
295 Corey Thompson Porter TX 1231 53 2 915 1:08:01.6 68:02/K
296 Mat Koym Kingwood TX 677 37 2 920 1:08:16.0 68:16/K
297 Rodrigo Castillo Kingwood TX 1541 20 2 922 1:08:19.2 68:19/K
298 Charlie Brenner Kingwood TX 142 21 2 923 1:08:20.0 68:20/K
299 Billy Reynolds Porter TX 1036 54 2 927 1:08:32.9 68:33/K
300 Curtis Snell Humble TX 1155 57 2 930 1:08:34.7 68:35/K
301 Zach Cotter Houston TX 291 23 2 932 1:08:35.7 68:36/K
302 Caleb Budde Kingwood TX 181 16 2 933 1:08:36.1 68:36/K
303 Ben Harrell Kingwood TX 1463 42 2 941 1:08:49.5 68:50/K
304 David McLaughlin Kingwood TX 852 67 2 943 1:09:02.0 69:02/K
305 Ben Chambers Kingwood TX 248 55 2 946 1:09:10.9 69:11/K
306 Ryan Reeves Humble TX 1033 25 2 948 1:09:13.2 69:13/K
307 Nolan Pessetti Kingwood TX 994 18 2 951 1:09:16.0 69:16/K
308 Jeff Simmons Kingwood TX 1116 49 2 952 1:09:18.3 69:18/K
309 Aaron Higginbotham Crosby TX 563 37 2 959 1:09:27.2 69:27/K
310 Jayme Medina Kingwood TX 857 41 2 967 1:09:53.6 69:54/K
311 Steve Majid Kingwood TX 777 56 2 975 1:10:12.9 70:13/K
312 Timothy Geiger New Caney TX 468 22 2 976 1:10:13.7 70:14/K
313 Paul O'Reilly Humble TX 950 44 2 979 1:10:16.7 70:17/K
314 Al Wehe Kingwood TX 1302 83 2 983 1:10:26.2 70:26/K
315 Casey Wilson Conroe TX 1334 43 2 988 1:10:27.6 70:28/K
316 Mason Clark Kingwood TX 269 15 2 991 1:10:32.9 70:33/K
317 Marc Kasher Beaumont TX 637 62 2 992 1:10:35.1 70:35/K
318 Gary Eakin Kingwood TX 356 58 2 993 1:10:40.4 70:40/K
319 Jedidiah Brewer Kingwood TX 146 41 2 995 1:10:43.4 70:43/K
320 Andrew Kruger Porter TX 684 35 2 996 1:10:44.4 70:44/K
321 Luke Vaughn Crosby TX 1265 15 2 998 1:10:54.4 70:54/K
322 Dustin Saxon Kingwood TX 1082 38 2 1004 1:11:07.0 71:07/K
323 Matt Henry Kingwood TX 551 45 2 1006 1:11:14.6 71:15/K
324 Corey Turner Humble TX 1635 38 2 1010 1:11:20.5 71:21/K
325 Jonathan Clark Kingwood TX 268 18 2 1011 1:11:21.5 71:22/K
326 Trey Dees Humble TX 311 19 2 1016 1:11:36.2 71:36/K
327 Matt Treadwell Kingwood TX 1253 46 2 1017 1:11:37.2 71:37/K
328 David Sollers Humble TX 1165 41 2 1019 1:11:51.1 71:51/K
329 David McCollough Middletown RI 825 42 2 1025 1:12:14.2 72:14/K
330 Jim Morrison Humble TX 918 55 2 1027 1:12:44.5 72:45/K
331 James Carruth Kingwood TX 1694 43 2 1030 1:12:50.2 72:50/K
332 Charlie Sheppard Kingwood TX 1597 20 2 1034 1:13:02.5 73:03/K
333 Ryan Long Kingwood TX 761 19 2 1038 1:13:16.7 73:17/K
334 Justin Long Kingwood TX 759 17 2 1041 1:13:31.6 73:32/K
335 Robert Moellenberndt Sturgeon Bay WI 899 68 2 1044 1:13:47.7 73:48/K
336 John Lee Kingwood TX 728 49 2 1045 1:13:49.8 73:50/K
337 Chris Fuqua Kingwood TX 435 57 2 1050 1:14:24.7 74:25/K
338 Stephen Manning Kingwood TX 782 62 2 1051 1:14:24.8 74:25/K
339 Ronald Fuqua Kingwood TX 438 64 2 1052 1:14:25.5 74:26/K
340 Scott Duncan Kingwood TX 334 42 2 1055 1:14:28.3 74:28/K
341 Ryan Weller Kingwood TX 1305 40 2 1056 1:14:28.5 74:29/K
342 Al Doering Kingwood TX 329 63 2 1057 1:14:30.4 74:30/K
343 Matthew Flaherty Kingwood TX 1632 20 2 1061 1:14:38.9 74:39/K
344 Kyle Cochran Kingwood TX 1434 51 2 1062 1:14:42.7 74:43/K
345 Andrew Scontrino Garland TX 1577 22 2 1064 1:14:57.3 74:57/K
346 Ronnie Cooke Porter TX 1380 46 2 1066 1:15:12.9 75:13/K
347 William Barrick Humble TX 73 73 2 1067 1:15:28.2 75:28/K
348 Andrew Imperato Kingwood TX 1641 16 2 1068 1:15:33.7 75:34/K
349 Van Christman Kingwood TX 266 46 2 1074 1:15:52.9 75:53/K
350 Marshall Simmons Kingwood TX 1121 15 2 1077 1:16:08.6 76:09/K
351 Garret Green Kingwood TX 1617 16 2 1078 1:16:15.9 76:16/K
352 Jake Tatom Kingwood TX 1442 15 2 1080 1:16:18.1 76:18/K
353 Luke Willms Kingwood TX 1327 22 2 1081 1:16:20.2 76:20/K
354 Michael Burke Omaha NE 191 28 2 1082 1:16:20.6 76:21/K
355 Chad Williams Kingwood TX 1526 48 2 1085 1:16:31.1 76:31/K
356 Steven Tinnin Kingwood TX 1242 47 2 1089 1:16:38.5 76:39/K
357 Ricky Campbell Kingwood TX 1698 71 2 1090 1:16:45.3 76:45/K
358 Jeffrey Willms Kingwood TX 1326 55 2 1091 1:16:46.8 76:47/K
359 Timothy Laplante Kingwood TX 711 15 2 1094 1:17:01.1 77:01/K
360 Derek Cook Olathe KS 283 46 2 1099 1:17:07.0 77:07/K
361 Bobby Eads Katy TX 350 60 2 1100 1:17:07.5 77:08/K
362 Steve Park Kingwood TX 967 58 2 1107 1:17:31.1 77:31/K
363 Shelton Muckelroy Kingwood TX 927 20 2 1109 1:17:34.4 77:34/K
364 David Farrell Kingwood TX 387 58 2 1114 1:17:50.7 77:51/K
365 David Huffman Humble TX 591 35 2 1116 1:18:03.2 78:03/K
366 Joseph Sanders Humble TX 1424 31 2 1117 1:18:07.7 78:08/K
367 Aaron Best Jr Kingwood TX 100 16 2 1119 1:18:24.3 78:24/K
368 Larry Long Houston TX 760 54 2 1121 1:18:31.8 78:32/K
369 Michael Burlone Webster TX 198 35 2 1123 1:18:59.1 78:59/K
370 Cooper Chambers Kingwood TX 249 20 2 1126 1:19:19.8 79:20/K
371 Jeff Tatum Humble TX 1218 52 2 1127 1:19:35.0 79:35/K
372 Thomas Miller Houston TX 896 39 2 1131 1:19:40.5 79:41/K
373 Ralph Imperato Humble TX 1642 73 2 1137 1:20:03.3 80:03/K
374 Greyson Morgan Kingwoodkingwood TX 914 19 2 1139 1:20:20.3 80:20/K
375 Cole Preston Kingwood TX 1015 20 2 1140 1:20:20.6 80:21/K
376 Brandon Mehaffey Fort Worth TX 1625 24 2 1144 1:20:28.1 80:28/K
377 Mark Cash Kingwood TX 240 57 2 1146 1:20:30.9 80:31/K
378 Charles Valente Morton Grove IL 1256 57 2 1149 1:20:35.2 80:35/K
379 Lawrence Hutchings Kingwood TX 1375 66 2 1156 1:20:47.2 80:47/K
380 Eric Ellis Kingwood TX 379 50 2 1158 1:20:52.4 80:52/K
381 Kelvin Shaw Kingwood TX 1602 47 2 1159 1:20:54.4 80:54/K
382 Kyle Richter Spring TX 1456 32 2 1164 1:21:27.6 81:28/K
383 Chris Lallier Humble TX 704 56 2 1170 1:21:45.5 81:46/K
384 Karan Gaur Kingwood TX 462 83 2 1171 1:21:58.0 81:58/K
385 Talon Balcom Kingwood TX 1531 16 2 1183 1:22:26.1 82:26/K
386 Michael Kell Kingwood TX 651 16 2 1185 1:22:28.4 82:28/K
387 Kevin Spartz Kingwood TX 1174 15 2 1187 1:22:29.9 82:30/K
388 Mark Green Kingwood TX 1618 56 2 1188 1:22:30.5 82:31/K
389 Brad Hillier Kingwood TX 571 47 2 1195 1:22:44.5 82:45/K
390 Bob Hillier Kingwood TX 570 50 2 1196 1:22:45.3 82:45/K
391 Jim Brenner Kingwood TX 143 61 2 1199 1:22:52.8 82:53/K
392 Will Wentzel Kingwood TX 1309 59 2 1200 1:22:53.4 82:53/K
393 Troy Thomasson Huffman TX 1230 32 2 1202 1:23:12.2 83:12/K
394 Travis Mayfield Kingwood TX 816 23 2 1207 1:23:32.8 83:33/K
395 Eddie Fletcher Kingwood TX 407 55 2 1208 1:23:34.5 83:35/K
396 Thomas Deskins Kingwood TX 313 62 2 1210 1:23:38.9 83:39/K
397 Asa Snell Humble TX 1154 23 2 1212 1:23:48.7 83:49/K
398 John Black Humble TX 115 44 2 1218 1:23:51.2 83:51/K
399 Bill Swendsen Crosby TX 1209 63 2 1230 1:24:15.7 84:16/K
400 Humberto Rosa Kingwood TX 1069 42 2 1235 1:24:18.6 84:19/K
401 Alvaro Ros Ortiz Ignacio CO 1068 15 2 1241 1:24:43.6 84:44/K
402 Beau Moore Ignacio CO 904 36 2 1242 1:24:43.8 84:44/K
403 Ken Vogel Kingwood TX 1279 50 2 1244 1:24:57.9 84:58/K
404 Andrew Vogel Kingwood TX 1277 18 2 1246 1:24:58.0 84:58/K
405 Steve Blado Kingwood TX 118 51 2 1248 1:25:03.3 85:03/K
406 Brandon Bailey Kingwood TX 49 25 2 1251 1:25:12.4 85:12/K
407 Noah Klitus Porter TX 669 20 2 1252 1:25:12.5 85:13/K
408 Andrew Guerrero Houston TX 506 37 2 1253 1:25:15.1 85:15/K
409 Blaine Igoe Humble TX 596 18 2 1259 1:25:24.5 85:25/K
410 Nick McLaughlin Kingwood TX 853 36 2 1265 1:26:21.4 86:21/K
411 Brett Cook Kingwood TX 280 29 2 1270 1:26:40.0 86:40/K
412 Michael Ruediger New Caney TX 1415 68 2 1272 1:26:47.2 86:47/K
413 Michael Preston Kingwood TX 1017 52 2 1273 1:26:51.5 86:52/K
414 Todd Rains Cedar Rapids IA 1028 50 2 1274 1:26:51.6 86:52/K
415 Bruce Kaldheim Kingwood TX 635 66 2 1277 1:27:24.6 87:25/K
416 Charles Alvarez Houston TX 25 48 2 1282 1:27:38.4 87:38/K
417 Logan Smith Kingwood TX 1146 20 2 1283 1:27:41.4 87:41/K
418 Patrick Smith Kingwood TX 1148 54 2 1284 1:27:41.6 87:42/K
419 Kyle McClelland Porter TX 823 31 2 1286 1:27:45.7 87:46/K
420 Dwayne McClelland Porter TX 821 62 2 1287 1:27:46.9 87:47/K
421 Jim Marshall Houston TX 791 40 2 1288 1:28:04.5 88:05/K
422 John Imperato John Imperato Kingwood TX 1640 17 2 1291 1:28:32.5 88:33/K
423 Palmer Grabner Kingwood TX 486 16 2 1296 1:28:48.3 88:48/K
424 Nick Selk Kingwood TX 1587 36 2 1301 1:28:50.8 88:51/K
425 Scott Pyle Kingwood TX 1022 56 2 1316 1:29:27.3 89:27/K
426 Christopher Barker Kingwood TX 66 44 2 1318 1:29:37.7 89:38/K
427 Robert Spartz Kingwood TX 1176 50 2 1328 1:29:57.7 89:58/K
428 Gib Wheatley Kingwood TX 1313 60 2 1329 1:29:59.6 90:00/K
429 Jason Brown Humble TX 167 46 2 1332 1:30:08.0 90:08/K
430 Kenneth Messer Kingwood TX 882 67 2 1334 1:30:15.3 90:15/K
431 Willard Messer Kingwood TX 884 29 2 1336 1:30:15.8 90:16/K
432 Greg Simpson Kingwood TX 1126 52 2 1344 1:30:26.8 90:27/K
433 Michael Flanagan Kingwood TX 406 18 2 1345 1:30:27.9 90:28/K
434 Bob Flanagan Kingwood TX 404 55 2 1346 1:30:28.5 90:29/K
435 Craig Heidinger Kingwood TX 544 56 2 1347 1:30:32.9 90:33/K
436 Tucker Bryce Kingwood TX 180 24 2 1350 1:30:37.8 90:38/K
437 Zachary Kell Kingwood TX 653 17 2 1355 1:30:51.9 90:52/K
438 Grayson Meyer Humble TX 885 36 2 1359 1:31:01.4 91:01/K
439 Mark Meyer Humble TX 886 69 2 1360 1:31:03.5 91:04/K
440 Samantha Weeks Troup TX 1301 34 2 1362 1:31:15.0 91:15/K
441 Lewey Beckham Kingwood VT 88 72 2 1368 1:32:08.7 92:09/K
442 Andrew Kovacik Kingwood TX 672 18 2 1375 1:32:51.4 92:51/K
443 Steve Hansen Kingwood TX 525 61 2 1376 1:32:53.0 92:53/K
444 George Kovacik Kingwood TX 673 55 2 1379 1:32:55.1 92:55/K
445 Caleb Madigan Humble TX 770 18 2 1385 1:33:10.6 93:11/K
446 Matthew Fazzino Kingwood TX 1593 20 2 1386 1:33:10.7 93:11/K
447 Cliff Mathiasen Huffman TX 805 63 2 1388 1:33:23.6 93:24/K
448 Fred Ferguson Cleveland TX 397 57 2 1389 1:33:32.9 93:33/K
449 Brendan Weeks Troup TX 1298 28 2 1392 1:33:49.2 93:49/K
450 Morgan Smith Spring TX 1147 59 2 1394 1:34:17.9 94:18/K
451 Parker Wagle Kingwood TX 1284 20 2 1395 1:34:22.1 94:22/K